Time,TemperatureF,DewpointF,PressureIn,WindDirection,WindDirectionDegrees,WindSpeedMPH,WindSpeedGustMPH,Humidity,HourlyPrecipIn,Conditions,Clouds,dailyrainin,SoftwareType,DateUTC
2013-04-05 00:00:00,43.1,22.1,29.95,NNW,348,1.0,12.0,43,0.00,,,0.00,VWS V14.01,2013-04-05 04:00:00,
2013-04-05 00:05:00,43.3,21.8,29.95,NNE,33,7.0,11.0,42,0.00,,,0.00,VWS V14.01,2013-04-05 04:05:00,
2013-04-05 00:09:00,43.5,21.4,29.95,North,355,4.0,10.0,41,0.00,,,0.00,VWS V14.01,2013-04-05 04:09:00,
2013-04-05 00:10:00,43.5,22.0,29.95,ENE,73,5.0,10.0,42,0.00,,,0.00,VWS V14.01,2013-04-05 04:10:00,
2013-04-05 00:14:00,43.5,22.5,29.95,NNW,342,2.0,13.0,43,0.00,,,0.00,VWS V14.01,2013-04-05 04:14:00,
2013-04-05 00:15:00,43.4,22.4,29.94,NE,45,5.0,6.0,43,0.00,,,0.00,VWS V14.01,2013-04-05 04:15:00,
2013-04-05 00:19:00,43.1,22.1,29.94,North,9,6.0,11.0,43,0.00,,,0.00,VWS V14.01,2013-04-05 04:19:00,
2013-04-05 00:20:00,43.1,22.1,29.94,North,355,4.0,7.0,43,0.00,,,0.00,VWS V14.01,2013-04-05 04:20:00,
2013-04-05 00:24:00,43.1,22.1,29.94,NNE,20,2.0,9.0,43,0.00,,,0.00,VWS V14.01,2013-04-05 04:24:00,
2013-04-05 00:25:00,43.1,22.1,29.94,NNW,348,1.0,2.0,43,0.00,,,0.00,VWS V14.01,2013-04-05 04:25:00,
2013-04-05 00:29:00,43.1,21.6,29.94,NNE,25,8.0,8.0,42,0.00,,,0.00,VWS V14.01,2013-04-05 04:29:00,
2013-04-05 00:30:00,43.1,21.6,29.94,North,360,7.0,8.0,42,0.00,,,0.00,VWS V14.01,2013-04-05 04:30:00,
2013-04-05 00:35:00,43.2,21.7,29.94,North,349,6.0,9.0,42,0.00,,,0.00,VWS V14.01,2013-04-05 04:35:00,
2013-04-05 00:40:00,43.2,21.7,29.94,North,360,3.0,13.0,42,0.00,,,0.00,VWS V14.01,2013-04-05 04:40:00,
2013-04-05 00:45:00,43.3,21.8,29.93,North,350,8.0,9.0,42,0.00,,,0.00,VWS V14.01,2013-04-05 04:45:00,
2013-04-05 00:50:00,43.1,22.1,29.93,NNE,32,11.0,12.0,43,0.00,,,0.00,VWS V14.01,2013-04-05 04:50:00,
2013-04-05 00:55:00,42.9,22.0,29.93,North,355,5.0,5.0,43,0.00,,,0.00,VWS V14.01,2013-04-05 04:55:00,
2013-04-05 01:00:00,42.7,21.8,29.93,NNE,25,5.0,7.0,43,0.00,,,0.00,VWS V14.01,2013-04-05 05:00:00,
2013-04-05 01:05:00,42.9,22.5,29.93,NW,306,7.0,13.0,44,0.00,,,0.00,VWS V14.01,2013-04-05 05:05:00,
2013-04-05 01:06:00,42.9,22.0,29.93,North,10,6.0,13.0,43,0.00,,,0.00,VWS V14.01,2013-04-05 05:06:00,
2013-04-05 01:10:00,43.2,21.7,29.93,North,350,2.0,5.0,42,0.00,,,0.00,VWS V14.01,2013-04-05 05:10:00,
2013-04-05 01:11:00,43.2,22.2,29.93,North,350,4.0,5.0,43,0.00,,,0.00,VWS V14.01,2013-04-05 05:11:00,
2013-04-05 01:15:00,43.0,22.6,29.93,NNW,330,3.0,13.0,44,0.00,,,0.00,VWS V14.01,2013-04-05 05:15:00,
2013-04-05 01:16:00,43.0,22.0,29.93,North,355,6.0,13.0,43,0.00,,,0.00,VWS V14.01,2013-04-05 05:16:00,
2013-04-05 01:20:00,42.9,22.0,29.93,NNW,348,4.0,8.0,43,0.00,,,0.00,VWS V14.01,2013-04-05 05:20:00,
2013-04-05 01:21:00,42.9,22.0,29.93,North,360,4.0,8.0,43,0.00,,,0.00,VWS V14.01,2013-04-05 05:21:00,
2013-04-05 01:22:00,42.9,22.0,29.93,NW,316,5.0,15.0,43,0.00,,,0.00,VWS V14.01,2013-04-05 05:22:00,
2013-04-05 01:25:00,43.1,22.1,29.93,North,355,2.0,15.0,43,0.00,,,0.00,VWS V14.01,2013-04-05 05:25:00,
2013-04-05 01:26:00,43.1,21.6,29.93,NNW,344,3.0,13.0,42,0.00,,,0.00,VWS V14.01,2013-04-05 05:26:00,
2013-04-05 01:27:00,43.1,22.1,29.93,NNE,27,2.0,13.0,43,0.00,,,0.00,VWS V14.01,2013-04-05 05:27:00,
2013-04-05 01:30:00,43.1,22.1,29.93,NE,46,2.0,13.0,43,0.00,,,0.00,VWS V14.01,2013-04-05 05:30:00,
2013-04-05 01:31:00,43.1,22.1,29.93,North,5,2.0,5.0,43,0.00,,,0.00,VWS V14.01,2013-04-05 05:31:00,
2013-04-05 01:32:00,43.1,22.1,29.93,NE,42,3.0,5.0,43,0.00,,,0.00,VWS V14.01,2013-04-05 05:32:00,
2013-04-05 01:35:00,42.9,22.5,29.93,NW,322,2.0,11.0,44,0.00,,,0.00,VWS V14.01,2013-04-05 05:35:00,
2013-04-05 01:37:00,43.0,22.0,29.92,NNE,18,2.0,10.0,43,0.00,,,0.00,VWS V14.01,2013-04-05 05:37:00,
2013-04-05 01:40:00,42.9,22.0,29.92,East,93,2.0,10.0,43,0.00,,,0.00,VWS V14.01,2013-04-05 05:40:00,
2013-04-05 01:42:00,42.9,22.5,29.92,North,360,3.0,7.0,44,0.00,,,0.00,VWS V14.01,2013-04-05 05:42:00,
2013-04-05 01:45:00,42.9,22.0,29.92,NNE,30,6.0,11.0,43,0.00,,,0.00,VWS V14.01,2013-04-05 05:45:00,
2013-04-05 01:47:00,43.1,22.7,29.92,NNE,15,4.0,6.0,44,0.00,,,0.00,VWS V14.01,2013-04-05 05:47:00,
2013-04-05 01:50:00,43.2,22.2,29.92,North,360,1.0,6.0,43,0.00,,,0.00,VWS V14.01,2013-04-05 05:50:00,
2013-04-05 01:52:00,43.3,22.3,29.92,NNE,19,1.0,9.0,43,0.00,,,0.00,VWS V14.01,2013-04-05 05:52:00,
2013-04-05 01:53:00,43.2,22.2,29.92,NNW,346,3.0,9.0,43,0.00,,,0.00,VWS V14.01,2013-04-05 05:53:00,
2013-04-05 01:55:00,43.2,22.8,29.92,North,360,0.0,9.0,44,0.00,,,0.00,VWS V14.01,2013-04-05 05:55:00,
2013-04-05 01:57:00,43.1,22.1,29.92,NNW,332,3.0,7.0,43,0.00,,,0.00,VWS V14.01,2013-04-05 05:57:00,
2013-04-05 01:58:00,43.1,22.7,29.91,NE,36,4.0,7.0,44,0.00,,,0.00,VWS V14.01,2013-04-05 05:58:00,
2013-04-05 02:00:00,43.0,22.6,29.91,North,360,13.0,13.0,44,0.00,,,0.00,VWS V14.01,2013-04-05 06:00:00,
2013-04-05 02:02:00,43.0,22.6,29.91,NNW,342,7.0,13.0,44,0.00,,,0.00,VWS V14.01,2013-04-05 06:02:00,
2013-04-05 02:03:00,43.0,22.6,29.91,North,355,9.0,13.0,44,0.00,,,0.00,VWS V14.01,2013-04-05 06:03:00,
2013-04-05 02:05:00,43.0,22.0,29.91,North,9,5.0,13.0,43,0.00,,,0.00,VWS V14.01,2013-04-05 06:05:00,
2013-04-05 02:07:00,42.9,22.0,29.91,North,5,3.0,7.0,43,0.00,,,0.00,VWS V14.01,2013-04-05 06:07:00,
2013-04-05 02:08:00,42.8,21.9,29.91,NW,306,4.0,7.0,43,0.00,,,0.00,VWS V14.01,2013-04-05 06:08:00,
2013-04-05 02:10:00,42.7,22.3,29.91,North,349,5.0,12.0,44,0.00,,,0.00,VWS V14.01,2013-04-05 06:10:00,
2013-04-05 02:12:00,42.6,22.2,29.91,NNE,24,4.0,14.0,44,0.00,,,0.00,VWS V14.01,2013-04-05 06:12:00,
2013-04-05 02:13:00,42.6,22.2,29.91,NNW,338,3.0,14.0,44,0.00,,,0.00,VWS V14.01,2013-04-05 06:13:00,
2013-04-05 02:15:00,42.6,22.2,29.91,North,5,2.0,15.0,44,0.00,,,0.00,VWS V14.01,2013-04-05 06:15:00,
2013-04-05 02:17:00,42.5,22.1,29.91,North,351,7.0,14.0,44,0.00,,,0.00,VWS V14.01,2013-04-05 06:17:00,
2013-04-05 02:18:00,42.5,22.1,29.91,NNE,26,3.0,14.0,44,0.00,,,0.00,VWS V14.01,2013-04-05 06:18:00,
2013-04-05 02:20:00,42.6,22.2,29.91,NE,38,2.0,4.0,44,0.00,,,0.00,VWS V14.01,2013-04-05 06:20:00,
2013-04-05 02:22:00,42.5,22.7,29.91,North,349,4.0,7.0,45,0.00,,,0.00,VWS V14.01,2013-04-05 06:22:00,
2013-04-05 02:23:00,42.5,22.7,29.91,ENE,57,4.0,7.0,45,0.00,,,0.00,VWS V14.01,2013-04-05 06:23:00,
2013-04-05 02:24:00,42.4,22.0,29.91,North,360,2.0,7.0,44,0.00,,,0.00,VWS V14.01,2013-04-05 06:24:00,
2013-04-05 02:25:00,42.4,22.0,29.91,North,5,6.0,7.0,44,0.00,,,0.00,VWS V14.01,2013-04-05 06:25:00,
2013-04-05 02:28:00,42.2,22.9,29.91,NW,323,4.0,9.0,46,0.00,,,0.00,VWS V14.01,2013-04-05 06:28:00,
2013-04-05 02:29:00,42.1,22.3,29.91,NNE,25,2.0,9.0,45,0.00,,,0.00,VWS V14.01,2013-04-05 06:29:00,
2013-04-05 02:30:00,42.1,22.8,29.91,NE,38,2.0,4.0,46,0.00,,,0.00,VWS V14.01,2013-04-05 06:30:00,
2013-04-05 02:33:00,41.8,22.0,29.91,NNE,30,1.0,7.0,45,0.00,,,0.00,VWS V14.01,2013-04-05 06:33:00,
2013-04-05 02:34:00,41.6,22.9,29.91,SSE,166,3.0,7.0,47,0.00,,,0.00,VWS V14.01,2013-04-05 06:34:00,
2013-04-05 02:35:00,41.5,22.8,29.91,WNW,286,2.0,3.0,47,0.00,,,0.00,VWS V14.01,2013-04-05 06:35:00,
2013-04-05 02:38:00,41.2,22.5,29.91,NNW,344,6.0,10.0,47,0.00,,,0.00,VWS V14.01,2013-04-05 06:38:00,
2013-04-05 02:39:00,41.2,22.0,29.91,NNE,22,6.0,11.0,46,0.00,,,0.00,VWS V14.01,2013-04-05 06:39:00,
2013-04-05 02:40:00,41.2,22.5,29.91,NE,53,2.0,5.0,47,0.00,,,0.00,VWS V14.01,2013-04-05 06:40:00,
2013-04-05 02:43:00,41.3,22.1,29.91,NNE,32,10.0,13.0,46,0.00,,,0.00,VWS V14.01,2013-04-05 06:43:00,
2013-04-05 02:44:00,41.4,22.2,29.91,North,9,5.0,13.0,46,0.00,,,0.00,VWS V14.01,2013-04-05 06:44:00,
2013-04-05 02:45:00,41.5,22.3,29.91,North,5,5.0,5.0,46,0.00,,,0.00,VWS V14.01,2013-04-05 06:45:00,
2013-04-05 02:48:00,41.6,22.4,29.91,North,9,1.0,13.0,46,0.00,,,0.00,VWS V14.01,2013-04-05 06:48:00,
2013-04-05 02:49:00,41.7,22.5,29.91,NNE,14,5.0,13.0,46,0.00,,,0.00,VWS V14.01,2013-04-05 06:49:00,
2013-04-05 02:50:00,41.7,22.5,29.90,North,11,0.0,5.0,46,0.00,,,0.00,VWS V14.01,2013-04-05 06:50:00,
2013-04-05 02:53:00,41.6,22.9,29.90,North,10,3.0,13.0,47,0.00,,,0.00,VWS V14.01,2013-04-05 06:53:00,
2013-04-05 02:55:00,41.6,22.4,29.90,ENE,64,10.0,12.0,46,0.00,,,0.00,VWS V14.01,2013-04-05 06:55:00,
2013-04-05 02:58:00,41.5,22.8,29.90,NNW,329,2.0,13.0,47,0.00,,,0.00,VWS V14.01,2013-04-05 06:58:00,
2013-04-05 03:00:00,41.5,22.8,29.90,NW,314,2.0,2.0,47,0.00,,,0.00,VWS V14.01,2013-04-05 07:00:00,
2013-04-05 03:01:00,41.4,22.7,29.90,North,360,7.0,14.0,47,0.00,,,0.00,VWS V14.01,2013-04-05 07:01:00,
2013-04-05 03:04:00,41.5,22.8,29.90,NNW,340,4.0,14.0,47,0.00,,,0.00,VWS V14.01,2013-04-05 07:04:00,
2013-04-05 03:05:00,41.4,22.7,29.90,NNW,344,6.0,13.0,47,0.00,,,0.00,VWS V14.01,2013-04-05 07:05:00,
2013-04-05 03:06:00,41.4,22.7,29.90,NW,321,4.0,13.0,47,0.00,,,0.00,VWS V14.01,2013-04-05 07:06:00,
2013-04-05 03:09:00,41.4,22.7,29.90,North,355,10.0,13.0,47,0.00,,,0.00,VWS V14.01,2013-04-05 07:09:00,
2013-04-05 03:10:00,41.3,22.6,29.90,NNE,21,13.0,13.0,47,0.00,,,0.00,VWS V14.01,2013-04-05 07:10:00,
2013-04-05 03:12:00,41.4,22.7,29.90,NNW,348,4.0,13.0,47,0.00,,,0.00,VWS V14.01,2013-04-05 07:12:00,
2013-04-05 03:15:00,41.4,22.7,29.90,NNE,14,2.0,11.0,47,0.00,,,0.00,VWS V14.01,2013-04-05 07:15:00,
2013-04-05 03:17:00,41.4,22.7,29.90,North,350,4.0,17.0,47,0.00,,,0.00,VWS V14.01,2013-04-05 07:17:00,
2013-04-05 03:20:00,41.5,22.8,29.90,NE,48,8.0,9.0,47,0.00,,,0.00,VWS V14.01,2013-04-05 07:20:00,
2013-04-05 03:22:00,41.6,22.9,29.90,NNW,338,6.0,15.0,47,0.00,,,0.00,VWS V14.01,2013-04-05 07:22:00,
2013-04-05 03:25:00,41.6,22.9,29.90,North,355,11.0,11.0,47,0.00,,,0.00,VWS V14.01,2013-04-05 07:25:00,
2013-04-05 03:26:00,41.7,22.5,29.90,North,355,5.0,12.0,46,0.00,,,0.00,VWS V14.01,2013-04-05 07:26:00,
2013-04-05 03:27:00,41.7,23.0,29.90,NE,39,10.0,12.0,47,0.00,,,0.00,VWS V14.01,2013-04-05 07:27:00,
2013-04-05 03:30:00,41.6,22.9,29.90,NNW,327,10.0,10.0,47,0.00,,,0.00,VWS V14.01,2013-04-05 07:30:00,
2013-04-05 03:32:00,41.6,22.9,29.90,NE,36,5.0,11.0,47,0.00,,,0.00,VWS V14.01,2013-04-05 07:32:00,
2013-04-05 03:33:00,41.6,22.9,29.90,North,355,9.0,11.0,47,0.00,,,0.00,VWS V14.01,2013-04-05 07:33:00,
2013-04-05 03:35:00,41.6,22.9,29.90,East,81,3.0,12.0,47,0.00,,,0.00,VWS V14.01,2013-04-05 07:35:00,
2013-04-05 03:36:00,41.6,22.9,29.90,NNE,29,14.0,14.0,47,0.00,,,0.00,VWS V14.01,2013-04-05 07:36:00,
2013-04-05 03:37:00,41.5,22.8,29.90,NE,46,5.0,16.0,47,0.00,,,0.00,VWS V14.01,2013-04-05 07:37:00,
2013-04-05 03:38:00,41.5,22.8,29.90,North,351,3.0,16.0,47,0.00,,,0.00,VWS V14.01,2013-04-05 07:38:00,
2013-04-05 03:40:00,41.5,22.8,29.90,East,80,5.0,16.0,47,0.00,,,0.00,VWS V14.01,2013-04-05 07:40:00,
2013-04-05 03:41:00,41.5,22.8,29.90,NNW,338,4.0,10.0,47,0.00,,,0.00,VWS V14.01,2013-04-05 07:41:00,
2013-04-05 03:42:00,41.5,22.8,29.90,NNE,15,2.0,11.0,47,0.00,,,0.00,VWS V14.01,2013-04-05 07:42:00,
2013-04-05 03:43:00,41.5,22.8,29.90,NNE,29,1.0,11.0,47,0.00,,,0.00,VWS V14.01,2013-04-05 07:43:00,
2013-04-05 03:45:00,41.4,22.7,29.89,North,355,6.0,11.0,47,0.00,,,0.00,VWS V14.01,2013-04-05 07:45:00,
2013-04-05 03:46:00,41.4,22.7,29.90,ENE,72,2.0,12.0,47,0.00,,,0.00,VWS V14.01,2013-04-05 07:46:00,
2013-04-05 03:47:00,41.3,23.1,29.90,North,360,2.0,12.0,48,0.00,,,0.00,VWS V14.01,2013-04-05 07:47:00,
2013-04-05 03:48:00,41.3,23.1,29.90,NE,54,3.0,12.0,48,0.00,,,0.00,VWS V14.01,2013-04-05 07:48:00,
2013-04-05 03:50:00,41.2,23.0,29.90,West,276,2.0,12.0,48,0.00,,,0.00,VWS V14.01,2013-04-05 07:50:00,
2013-04-05 03:51:00,41.1,22.9,29.90,NE,42,7.0,9.0,48,0.00,,,0.00,VWS V14.01,2013-04-05 07:51:00,
2013-04-05 03:52:00,41.1,22.9,29.90,WSW,244,3.0,9.0,48,0.00,,,0.00,VWS V14.01,2013-04-05 07:52:00,
2013-04-05 03:53:00,41.1,23.4,29.90,NE,42,2.0,9.0,49,0.00,,,0.00,VWS V14.01,2013-04-05 07:53:00,
2013-04-05 03:55:00,41.0,23.3,29.90,ENE,63,6.0,9.0,49,0.00,,,0.00,VWS V14.01,2013-04-05 07:55:00,
2013-04-05 03:57:00,40.8,23.1,29.90,WNW,290,5.0,7.0,49,0.00,,,0.00,VWS V14.01,2013-04-05 07:57:00,
2013-04-05 03:58:00,40.7,22.5,29.90,NNE,30,2.0,7.0,48,0.00,,,0.00,VWS V14.01,2013-04-05 07:58:00,
2013-04-05 04:00:00,40.7,23.0,29.89,NW,321,4.0,5.0,49,0.00,,,0.00,VWS V14.01,2013-04-05 08:00:00,
2013-04-05 04:02:00,40.8,23.1,29.90,West,277,3.0,13.0,49,0.00,,,0.00,VWS V14.01,2013-04-05 08:02:00,
2013-04-05 04:03:00,40.8,23.1,29.89,NNE,27,4.0,13.0,49,0.00,,,0.00,VWS V14.01,2013-04-05 08:03:00,
2013-04-05 04:05:00,40.8,23.1,29.89,NNW,346,6.0,10.0,49,0.00,,,0.00,VWS V14.01,2013-04-05 08:05:00,
2013-04-05 04:07:00,40.8,23.6,29.89,NNE,13,5.0,12.0,50,0.00,,,0.00,VWS V14.01,2013-04-05 08:07:00,
2013-04-05 04:08:00,40.8,23.1,29.89,NE,53,11.0,15.0,49,0.00,,,0.00,VWS V14.01,2013-04-05 08:08:00,
2013-04-05 04:10:00,40.9,23.2,29.89,NNE,30,5.0,7.0,49,0.00,,,0.00,VWS V14.01,2013-04-05 08:10:00,
2013-04-05 04:12:00,40.8,23.1,29.89,North,11,15.0,15.0,49,0.00,,,0.00,VWS V14.01,2013-04-05 08:12:00,
2013-04-05 04:13:00,40.8,23.1,29.89,NW,321,4.0,18.0,49,0.00,,,0.00,VWS V14.01,2013-04-05 08:13:00,
2013-04-05 04:15:00,40.7,23.5,29.89,NNE,24,5.0,5.0,50,0.00,,,0.00,VWS V14.01,2013-04-05 08:15:00,
2013-04-05 04:17:00,40.6,23.4,29.89,WSW,239,3.0,11.0,50,0.00,,,0.00,VWS V14.01,2013-04-05 08:17:00,
2013-04-05 04:18:00,40.6,23.0,29.89,North,355,4.0,11.0,49,0.00,,,0.00,VWS V14.01,2013-04-05 08:18:00,
2013-04-05 04:19:00,40.6,23.0,29.89,North,360,4.0,12.0,49,0.00,,,0.00,VWS V14.01,2013-04-05 08:19:00,
2013-04-05 04:20:00,40.6,23.0,29.89,NNW,342,7.0,7.0,49,0.00,,,0.00,VWS V14.01,2013-04-05 08:20:00,
2013-04-05 04:23:00,40.6,23.0,29.89,NNW,348,10.0,13.0,49,0.00,,,0.00,VWS V14.01,2013-04-05 08:23:00,
2013-04-05 04:24:00,40.6,23.0,29.89,NNE,19,3.0,13.0,49,0.00,,,0.00,VWS V14.01,2013-04-05 08:24:00,
2013-04-05 04:25:00,40.6,23.0,29.89,NNW,346,3.0,7.0,49,0.00,,,0.00,VWS V14.01,2013-04-05 08:25:00,
2013-04-05 04:28:00,40.6,23.0,29.89,ENE,60,10.0,10.0,49,0.00,,,0.00,VWS V14.01,2013-04-05 08:28:00,
2013-04-05 04:29:00,40.6,23.0,29.89,NNW,331,3.0,11.0,49,0.00,,,0.00,VWS V14.01,2013-04-05 08:29:00,
2013-04-05 04:30:00,40.5,23.3,29.89,NNW,345,5.0,5.0,50,0.00,,,0.00,VWS V14.01,2013-04-05 08:30:00,
2013-04-05 04:31:00,40.5,23.3,29.89,NNW,345,5.0,5.0,50,0.00,,,0.00,VWS V14.01,2013-04-05 08:31:00,
2013-04-05 04:33:00,40.5,22.9,29.89,NE,45,4.0,12.0,49,0.00,,,0.00,VWS V14.01,2013-04-05 08:33:00,
2013-04-05 04:34:00,40.5,22.9,29.89,North,350,6.0,12.0,49,0.00,,,0.00,VWS V14.01,2013-04-05 08:34:00,
2013-04-05 04:35:00,40.5,22.9,29.89,North,350,6.0,12.0,49,0.00,,,0.00,VWS V14.01,2013-04-05 08:35:00,
2013-04-05 04:36:00,40.5,22.9,29.89,SE,126,2.0,8.0,49,0.00,,,0.00,VWS V14.01,2013-04-05 08:36:00,
2013-04-05 04:38:00,40.6,23.4,29.89,North,11,5.0,12.0,50,0.00,,,0.00,VWS V14.01,2013-04-05 08:38:00,
2013-04-05 04:40:00,40.6,23.0,29.89,West,275,4.0,9.0,49,0.00,,,0.00,VWS V14.01,2013-04-05 08:40:00,
2013-04-05 04:41:00,40.6,23.0,29.89,NNW,342,4.0,9.0,49,0.00,,,0.00,VWS V14.01,2013-04-05 08:41:00,
2013-04-05 04:43:00,40.6,23.0,29.89,ENE,78,5.0,10.0,49,0.00,,,0.00,VWS V14.01,2013-04-05 08:43:00,
2013-04-05 04:45:00,40.6,23.0,29.88,ENE,57,0.0,10.0,49,0.00,,,0.00,VWS V14.01,2013-04-05 08:45:00,
2013-04-05 04:46:00,40.6,23.0,29.88,NNE,32,5.0,10.0,49,0.00,,,0.00,VWS V14.01,2013-04-05 08:46:00,
2013-04-05 04:47:00,40.6,23.0,29.88,NE,46,4.0,10.0,49,0.00,,,0.00,VWS V14.01,2013-04-05 08:47:00,
2013-04-05 04:49:00,40.6,23.0,29.89,NNE,30,3.0,14.0,49,0.00,,,0.00,VWS V14.01,2013-04-05 08:49:00,
2013-04-05 04:50:00,40.5,22.9,29.88,North,5,0.0,14.0,49,0.00,,,0.00,VWS V14.01,2013-04-05 08:50:00,
2013-04-05 04:51:00,40.5,22.9,29.89,NNW,345,2.0,3.0,49,0.00,,,0.00,VWS V14.01,2013-04-05 08:51:00,
2013-04-05 04:52:00,40.4,23.2,29.88,ENE,62,3.0,6.0,50,0.00,,,0.00,VWS V14.01,2013-04-05 08:52:00,
2013-04-05 04:54:00,40.3,23.1,29.88,NE,42,1.0,7.0,50,0.00,,,0.00,VWS V14.01,2013-04-05 08:54:00,
2013-04-05 04:55:00,40.3,23.1,29.89,NW,321,1.0,7.0,50,0.00,,,0.00,VWS V14.01,2013-04-05 08:55:00,
2013-04-05 04:56:00,40.3,23.1,29.89,NNW,348,3.0,9.0,50,0.00,,,0.00,VWS V14.01,2013-04-05 08:56:00,
2013-04-05 04:57:00,40.2,23.1,29.89,NNW,336,2.0,15.0,50,0.00,,,0.00,VWS V14.01,2013-04-05 08:57:00,
2013-04-05 04:59:00,40.3,23.1,29.89,NNE,18,3.0,15.0,50,0.00,,,0.00,VWS V14.01,2013-04-05 08:59:00,
2013-04-05 05:00:00,40.3,23.1,29.89,NNE,18,0.0,15.0,50,0.00,,,0.00,VWS V14.01,2013-04-05 09:00:00,
2013-04-05 05:01:00,40.3,23.1,29.88,NE,56,4.0,5.0,50,0.00,,,0.00,VWS V14.01,2013-04-05 09:01:00,
2013-04-05 05:02:00,40.3,23.1,29.88,North,5,1.0,7.0,50,0.00,,,0.00,VWS V14.01,2013-04-05 09:02:00,
2013-04-05 05:04:00,40.2,23.1,29.88,NNE,24,0.0,7.0,50,0.00,,,0.00,VWS V14.01,2013-04-05 09:04:00,
2013-04-05 05:05:00,40.2,23.1,29.88,NNE,24,0.0,7.0,50,0.00,,,0.00,VWS V14.01,2013-04-05 09:05:00,
2013-04-05 05:06:00,40.1,23.4,29.88,NE,44,7.0,8.0,51,0.00,,,0.00,VWS V14.01,2013-04-05 09:06:00,
2013-04-05 05:07:00,40.1,23.0,29.88,NNW,329,5.0,9.0,50,0.00,,,0.00,VWS V14.01,2013-04-05 09:07:00,
2013-04-05 05:09:00,39.9,23.3,29.88,NNW,345,1.0,2.0,51,0.00,,,0.00,VWS V14.01,2013-04-05 09:09:00,
2013-04-05 05:10:00,39.9,23.2,29.88,NNW,346,2.0,9.0,51,0.00,,,0.00,VWS V14.01,2013-04-05 09:10:00,
2013-04-05 05:11:00,39.8,23.2,29.88,NNE,15,4.0,7.0,51,0.00,,,0.00,VWS V14.01,2013-04-05 09:11:00,
2013-04-05 05:12:00,39.8,23.2,29.88,NNW,334,1.0,7.0,51,0.00,,,0.00,VWS V14.01,2013-04-05 09:12:00,
2013-04-05 05:15:00,39.8,23.2,29.88,North,360,5.0,6.0,51,0.00,,,0.00,VWS V14.01,2013-04-05 09:15:00,
2013-04-05 05:17:00,39.7,23.1,29.87,ENE,57,2.0,8.0,51,0.00,,,0.00,VWS V14.01,2013-04-05 09:17:00,
2013-04-05 05:18:00,39.7,23.1,29.87,North,350,1.0,8.0,51,0.00,,,0.00,VWS V14.01,2013-04-05 09:18:00,
2013-04-05 05:20:00,39.8,23.2,29.87,North,360,5.0,7.0,51,0.00,,,0.00,VWS V14.01,2013-04-05 09:20:00,
2013-04-05 05:22:00,39.7,23.1,29.87,North,360,3.0,10.0,51,0.00,,,0.00,VWS V14.01,2013-04-05 09:22:00,
2013-04-05 05:23:00,39.7,23.1,29.87,North,5,0.0,10.0,51,0.00,,,0.00,VWS V14.01,2013-04-05 09:23:00,
2013-04-05 05:25:00,39.7,23.1,29.87,ENE,61,2.0,6.0,51,0.00,,,0.00,VWS V14.01,2013-04-05 09:25:00,
2013-04-05 05:27:00,39.7,22.6,29.87,NE,52,1.0,6.0,50,0.00,,,0.00,VWS V14.01,2013-04-05 09:27:00,
2013-04-05 05:29:00,39.7,23.5,29.87,NW,311,3.0,6.0,52,0.00,,,0.00,VWS V14.01,2013-04-05 09:29:00,
2013-04-05 05:30:00,39.6,23.0,29.87,NW,309,1.0,10.0,51,0.00,,,0.00,VWS V14.01,2013-04-05 09:30:00,
2013-04-05 05:32:00,39.6,23.0,29.87,North,360,5.0,12.0,51,0.00,,,0.00,VWS V14.01,2013-04-05 09:32:00,
2013-04-05 05:34:00,39.4,23.2,29.87,WNW,294,1.0,12.0,52,0.00,,,0.00,VWS V14.01,2013-04-05 09:34:00,
2013-04-05 05:35:00,39.3,23.2,29.87,North,360,5.0,5.0,52,0.00,,,0.00,VWS V14.01,2013-04-05 09:35:00,
2013-04-05 05:37:00,39.2,22.6,29.87,NNE,27,0.0,7.0,51,0.00,,,0.00,VWS V14.01,2013-04-05 09:37:00,
2013-04-05 05:38:00,39.2,22.6,29.87,NNE,27,2.0,7.0,51,0.00,,,0.00,VWS V14.01,2013-04-05 09:38:00,
2013-04-05 05:39:00,39.1,23.0,29.88,East,89,2.0,9.0,52,0.00,,,0.00,VWS V14.01,2013-04-05 09:39:00,
2013-04-05 05:40:00,39.0,22.9,29.88,East,89,1.0,3.0,52,0.00,,,0.00,VWS V14.01,2013-04-05 09:40:00,
2013-04-05 05:42:00,39.0,22.9,29.88,NNW,331,6.0,9.0,52,0.00,,,0.00,VWS V14.01,2013-04-05 09:42:00,
2013-04-05 05:43:00,39.0,22.9,29.87,NE,51,4.0,9.0,52,0.00,,,0.00,VWS V14.01,2013-04-05 09:43:00,
2013-04-05 05:44:00,38.9,22.8,29.87,NNW,336,0.0,0.0,52,0.00,,,0.00,VWS V14.01,2013-04-05 09:44:00,
2013-04-05 05:45:00,38.8,22.7,29.87,North,355,3.0,5.0,52,0.00,,,0.00,VWS V14.01,2013-04-05 09:45:00,
2013-04-05 05:48:00,38.7,22.6,29.87,North,5,2.0,6.0,52,0.00,,,0.00,VWS V14.01,2013-04-05 09:48:00,
2013-04-05 05:50:00,38.6,23.0,29.87,NNE,18,2.0,8.0,53,0.00,,,0.00,VWS V14.01,2013-04-05 09:50:00,
2013-04-05 05:51:00,38.6,23.0,29.87,NNE,18,2.0,8.0,53,0.00,,,0.00,VWS V14.01,2013-04-05 09:51:00,
2013-04-05 05:53:00,38.4,22.8,29.87,NNE,22,2.0,8.0,53,0.00,,,0.00,VWS V14.01,2013-04-05 09:53:00,
2013-04-05 05:55:00,38.3,22.7,29.87,North,355,6.0,8.0,53,0.00,,,0.00,VWS V14.01,2013-04-05 09:55:00,
2013-04-05 05:56:00,38.2,22.6,29.87,ESE,105,2.0,6.0,53,0.00,,,0.00,VWS V14.01,2013-04-05 09:56:00,
2013-04-05 05:58:00,38.1,22.5,29.87,NNW,336,3.0,6.0,53,0.00,,,0.00,VWS V14.01,2013-04-05 09:58:00,
2013-04-05 06:00:00,38.2,23.0,29.87,NNW,331,2.0,6.0,54,0.00,,,0.00,VWS V14.01,2013-04-05 10:00:00,
2013-04-05 06:01:00,38.1,22.9,29.87,NNW,345,4.0,10.0,54,0.00,,,0.00,VWS V14.01,2013-04-05 10:01:00,
2013-04-05 06:03:00,38.1,22.9,29.87,North,5,3.0,10.0,54,0.00,,,0.00,VWS V14.01,2013-04-05 10:03:00,
2013-04-05 06:05:00,38.0,22.9,29.87,NNW,333,3.0,10.0,54,0.00,,,0.00,VWS V14.01,2013-04-05 10:05:00,
2013-04-05 06:06:00,38.0,22.4,29.87,NNE,22,6.0,7.0,53,0.00,,,0.00,VWS V14.01,2013-04-05 10:06:00,
2013-04-05 06:08:00,38.1,22.9,29.87,North,5,2.0,7.0,54,0.00,,,0.00,VWS V14.01,2013-04-05 10:08:00,
2013-04-05 06:10:00,38.1,22.9,29.86,NE,48,1.0,7.0,54,0.00,,,0.00,VWS V14.01,2013-04-05 10:10:00,
2013-04-05 06:11:00,38.1,22.9,29.87,NE,47,4.0,8.0,54,0.00,,,0.00,VWS V14.01,2013-04-05 10:11:00,
2013-04-05 06:12:00,38.1,22.5,29.87,NNE,20,4.0,8.0,53,0.00,,,0.00,VWS V14.01,2013-04-05 10:12:00,
2013-04-05 06:13:00,38.2,23.0,29.86,NNE,27,1.0,8.0,54,0.00,,,0.00,VWS V14.01,2013-04-05 10:13:00,
2013-04-05 06:15:00,38.2,23.0,29.86,NNW,334,2.0,8.0,54,0.00,,,0.00,VWS V14.01,2013-04-05 10:15:00,
2013-04-05 06:17:00,38.1,22.9,29.86,North,355,3.0,6.0,54,0.00,,,0.00,VWS V14.01,2013-04-05 10:17:00,
2013-04-05 06:18:00,38.1,22.9,29.86,NE,42,2.0,6.0,54,0.00,,,0.00,VWS V14.01,2013-04-05 10:18:00,
2013-04-05 06:20:00,38.0,22.9,29.86,NNW,343,2.0,6.0,54,0.00,,,0.00,VWS V14.01,2013-04-05 10:20:00,
2013-04-05 06:22:00,37.9,22.8,29.86,NNW,346,2.0,11.0,54,0.00,,,0.00,VWS V14.01,2013-04-05 10:22:00,
2013-04-05 06:23:00,38.0,22.9,29.86,NNW,342,0.0,11.0,54,0.00,,,0.00,VWS V14.01,2013-04-05 10:23:00,
2013-04-05 06:24:00,37.9,22.8,29.86,NE,55,3.0,11.0,54,0.00,,,0.00,VWS V14.01,2013-04-05 10:24:00,
2013-04-05 06:25:00,37.8,22.7,29.86,North,360,5.0,11.0,54,0.00,,,0.00,VWS V14.01,2013-04-05 10:25:00,
2013-04-05 06:27:00,37.8,23.1,29.86,North,10,5.0,7.0,55,0.00,,,0.00,VWS V14.01,2013-04-05 10:27:00,
2013-04-05 06:28:00,37.8,23.1,29.86,North,5,3.0,7.0,55,0.00,,,0.00,VWS V14.01,2013-04-05 10:28:00,
2013-04-05 06:29:00,37.7,23.0,29.86,NW,320,0.0,7.0,55,0.00,,,0.00,VWS V14.01,2013-04-05 10:29:00,
2013-04-05 06:30:00,37.7,23.0,29.86,NW,310,2.0,7.0,55,0.00,,,0.00,VWS V14.01,2013-04-05 10:30:00,
2013-04-05 06:33:00,37.7,22.6,29.87,North,351,5.0,9.0,54,0.00,,,0.00,VWS V14.01,2013-04-05 10:33:00,
2013-04-05 06:34:00,37.8,22.7,29.86,North,360,1.0,9.0,54,0.00,,,0.00,VWS V14.01,2013-04-05 10:34:00,
2013-04-05 06:35:00,37.9,22.8,29.86,NNW,342,3.0,9.0,54,0.00,,,0.00,VWS V14.01,2013-04-05 10:35:00,
2013-04-05 06:38:00,37.9,22.8,29.87,NNW,344,6.0,6.0,54,0.00,,,0.00,VWS V14.01,2013-04-05 10:38:00,
2013-04-05 06:39:00,37.9,22.8,29.86,NE,36,3.0,7.0,54,0.00,,,0.00,VWS V14.01,2013-04-05 10:39:00,
2013-04-05 06:40:00,37.9,22.8,29.86,NE,36,0.0,7.0,54,0.00,,,0.00,VWS V14.01,2013-04-05 10:40:00,
2013-04-05 06:43:00,37.8,23.5,29.87,NNE,25,0.0,4.0,56,0.00,,,0.00,VWS V14.01,2013-04-05 10:43:00,
2013-04-05 06:44:00,37.7,23.0,29.87,NE,34,4.0,7.0,55,0.00,,,0.00,VWS V14.01,2013-04-05 10:44:00,
2013-04-05 06:45:00,37.7,22.6,29.87,NNW,345,3.0,7.0,54,0.00,,,0.00,VWS V14.01,2013-04-05 10:45:00,
2013-04-05 06:48:00,37.8,22.7,29.87,NW,312,0.0,11.0,54,0.00,,,0.00,VWS V14.01,2013-04-05 10:48:00,
2013-04-05 06:49:00,37.9,22.8,29.87,NNW,334,2.0,11.0,54,0.00,,,0.00,VWS V14.01,2013-04-05 10:49:00,
2013-04-05 06:50:00,37.9,22.8,29.87,NNW,334,4.0,5.0,54,0.00,,,0.00,VWS V14.01,2013-04-05 10:50:00,
2013-04-05 06:53:00,38.1,22.9,29.87,NNE,14,10.0,10.0,54,0.00,,,0.00,VWS V14.01,2013-04-05 10:53:00,
2013-04-05 06:54:00,38.0,22.9,29.87,NNE,30,2.0,10.0,54,0.00,,,0.00,VWS V14.01,2013-04-05 10:54:00,
2013-04-05 06:55:00,38.0,23.3,29.87,NNE,30,0.0,2.0,55,0.00,,,0.00,VWS V14.01,2013-04-05 10:55:00,
2013-04-05 06:58:00,38.0,22.9,29.87,NW,325,1.0,5.0,54,0.00,,,0.00,VWS V14.01,2013-04-05 10:58:00,
2013-04-05 06:59:00,38.0,22.9,29.87,East,101,0.0,6.0,54,0.00,,,0.00,VWS V14.01,2013-04-05 10:59:00,
2013-04-05 07:00:00,38.0,22.9,29.87,North,11,2.0,2.0,54,0.00,,,0.00,VWS V14.01,2013-04-05 11:00:00,
2013-04-05 07:03:00,38.1,22.9,29.87,NNW,342,2.0,9.0,54,0.00,,,0.00,VWS V14.01,2013-04-05 11:03:00,
2013-04-05 07:04:00,38.2,22.6,29.88,NE,42,2.0,2.0,53,0.00,,,0.00,VWS V14.01,2013-04-05 11:04:00,
2013-04-05 07:05:00,38.2,23.0,29.88,North,360,0.0,3.0,54,0.00,,,0.00,VWS V14.01,2013-04-05 11:05:00,
2013-04-05 07:08:00,38.3,22.7,29.88,North,5,9.0,10.0,53,0.00,,,0.00,VWS V14.01,2013-04-05 11:08:00,
2013-04-05 07:09:00,38.3,22.7,29.88,North,355,4.0,10.0,53,0.00,,,0.00,VWS V14.01,2013-04-05 11:09:00,
2013-04-05 07:10:00,38.3,22.7,29.88,North,5,6.0,7.0,53,0.00,,,0.00,VWS V14.01,2013-04-05 11:10:00,
2013-04-05 07:14:00,38.4,23.2,29.88,NE,47,4.0,7.0,54,0.00,,,0.00,VWS V14.01,2013-04-05 11:14:00,
2013-04-05 07:15:00,38.4,22.8,29.88,ESE,107,3.0,6.0,53,0.00,,,0.00,VWS V14.01,2013-04-05 11:15:00,
2013-04-05 07:19:00,38.5,22.9,29.88,East,89,2.0,6.0,53,0.00,,,0.00,VWS V14.01,2013-04-05 11:19:00,
2013-04-05 07:20:00,38.5,22.9,29.88,NW,323,5.0,5.0,53,0.00,,,0.00,VWS V14.01,2013-04-05 11:20:00,
2013-04-05 07:24:00,38.6,23.0,29.88,NW,309,1.0,9.0,53,0.00,,,0.00,VWS V14.01,2013-04-05 11:24:00,
2013-04-05 07:25:00,38.7,22.6,29.88,NE,55,7.0,7.0,52,0.00,,,0.00,VWS V14.01,2013-04-05 11:25:00,
2013-04-05 07:26:00,38.7,23.1,29.88,North,360,5.0,7.0,53,0.00,,,0.00,VWS V14.01,2013-04-05 11:26:00,
2013-04-05 07:29:00,38.8,22.7,29.88,North,360,2.0,8.0,52,0.00,,,0.00,VWS V14.01,2013-04-05 11:29:00,
2013-04-05 07:30:00,38.9,22.8,29.88,ENE,69,3.0,7.0,52,0.00,,,0.00,VWS V14.01,2013-04-05 11:30:00,
2013-04-05 07:31:00,38.9,22.8,29.88,ENE,71,2.0,7.0,52,0.00,,,0.00,VWS V14.01,2013-04-05 11:31:00,
2013-04-05 07:34:00,39.0,22.9,29.88,NNE,14,3.0,3.0,52,0.00,,,0.00,VWS V14.01,2013-04-05 11:34:00,
2013-04-05 07:35:00,39.0,22.9,29.88,North,360,2.0,6.0,52,0.00,,,0.00,VWS V14.01,2013-04-05 11:35:00,
2013-04-05 07:36:00,39.0,22.9,29.88,North,5,5.0,6.0,52,0.00,,,0.00,VWS V14.01,2013-04-05 11:36:00,
2013-04-05 07:37:00,39.0,22.9,29.88,NNE,20,2.0,6.0,52,0.00,,,0.00,VWS V14.01,2013-04-05 11:37:00,
2013-04-05 07:40:00,39.1,23.0,29.88,NE,39,0.0,2.0,52,0.00,,,0.00,VWS V14.01,2013-04-05 11:40:00,
2013-04-05 07:41:00,39.1,23.0,29.88,NNW,345,3.0,5.0,52,0.00,,,0.00,VWS V14.01,2013-04-05 11:41:00,
2013-04-05 07:42:00,39.0,22.9,29.88,SE,128,5.0,5.0,52,0.00,,,0.00,VWS V14.01,2013-04-05 11:42:00,
2013-04-05 07:45:00,39.0,22.9,29.88,ENE,65,5.0,6.0,52,0.00,,,0.00,VWS V14.01,2013-04-05 11:45:00,
2013-04-05 07:46:00,39.0,22.9,29.88,WNW,292,1.0,6.0,52,0.00,,,0.00,VWS V14.01,2013-04-05 11:46:00,
2013-04-05 07:47:00,38.9,22.8,29.88,NNW,332,7.0,7.0,52,0.00,,,0.00,VWS V14.01,2013-04-05 11:47:00,
2013-04-05 07:50:00,38.9,22.8,29.88,ENE,74,2.0,3.0,52,0.00,,,0.00,VWS V14.01,2013-04-05 11:50:00,
2013-04-05 07:52:00,38.9,22.3,29.88,ENE,72,4.0,8.0,51,0.00,,,0.00,VWS V14.01,2013-04-05 11:52:00,
2013-04-05 07:55:00,39.0,22.4,29.88,East,100,1.0,5.0,51,0.00,,,0.00,VWS V14.01,2013-04-05 11:55:00,
2013-04-05 07:57:00,39.0,22.4,29.88,East,80,3.0,5.0,51,0.00,,,0.00,VWS V14.01,2013-04-05 11:57:00,
2013-04-05 08:00:00,39.1,22.5,29.88,NE,47,3.0,11.0,51,0.00,,,0.00,VWS V14.01,2013-04-05 12:00:00,
2013-04-05 08:02:00,39.1,22.5,29.88,East,88,4.0,11.0,51,0.00,,,0.00,VWS V14.01,2013-04-05 12:02:00,
2013-04-05 08:03:00,39.1,22.5,29.88,East,82,3.0,11.0,51,0.00,,,0.00,VWS V14.01,2013-04-05 12:03:00,
2013-04-05 08:05:00,39.3,22.7,29.88,NE,53,4.0,6.0,51,0.00,,,0.00,VWS V14.01,2013-04-05 12:05:00,
2013-04-05 08:07:00,39.4,22.8,29.87,SSE,160,3.0,6.0,51,0.00,,,0.00,VWS V14.01,2013-04-05 12:07:00,
2013-04-05 08:08:00,39.5,22.9,29.88,East,91,4.0,6.0,51,0.00,,,0.00,VWS V14.01,2013-04-05 12:08:00,
2013-04-05 08:10:00,39.7,22.6,29.87,East,88,5.0,6.0,50,0.00,,,0.00,VWS V14.01,2013-04-05 12:10:00,
2013-04-05 08:12:00,39.9,22.8,29.87,NE,49,4.0,9.0,50,0.00,,,0.00,VWS V14.01,2013-04-05 12:12:00,
2013-04-05 08:13:00,39.9,22.8,29.88,North,355,3.0,9.0,50,0.00,,,0.00,VWS V14.01,2013-04-05 12:13:00,
2013-04-05 08:15:00,40.2,23.5,29.87,NE,42,2.0,5.0,51,0.00,,,0.00,VWS V14.01,2013-04-05 12:15:00,
2013-04-05 08:17:00,40.4,22.8,29.87,NE,49,0.0,7.0,49,0.00,,,0.00,VWS V14.01,2013-04-05 12:17:00,
2013-04-05 08:18:00,40.4,22.8,29.87,NNW,342,4.0,7.0,49,0.00,,,0.00,VWS V14.01,2013-04-05 12:18:00,
2013-04-05 08:20:00,40.7,23.0,29.87,ENE,69,2.0,5.0,49,0.00,,,0.00,VWS V14.01,2013-04-05 12:20:00,
2013-04-05 08:22:00,40.8,23.1,29.87,East,81,4.0,9.0,49,0.00,,,0.00,VWS V14.01,2013-04-05 12:22:00,
2013-04-05 08:23:00,40.8,23.1,29.87,ENE,78,4.0,9.0,49,0.00,,,0.00,VWS V14.01,2013-04-05 12:23:00,
2013-04-05 08:25:00,41.0,23.3,29.86,East,94,6.0,9.0,49,0.00,,,0.00,VWS V14.01,2013-04-05 12:25:00,
2013-04-05 08:27:00,41.1,23.9,29.86,ENE,74,2.0,9.0,50,0.00,,,0.00,VWS V14.01,2013-04-05 12:27:00,
2013-04-05 08:28:00,41.1,23.9,29.86,East,86,6.0,9.0,50,0.00,,,0.00,VWS V14.01,2013-04-05 12:28:00,
2013-04-05 08:30:00,41.2,23.0,29.86,East,84,4.0,9.0,48,0.00,,,0.00,VWS V14.01,2013-04-05 12:30:00,
2013-04-05 08:32:00,41.3,23.1,29.86,ESE,105,11.0,12.0,48,0.00,,,0.00,VWS V14.01,2013-04-05 12:32:00,
2013-04-05 08:33:00,41.3,23.1,29.86,East,90,9.0,12.0,48,0.00,,,0.00,VWS V14.01,2013-04-05 12:33:00,
2013-04-05 08:34:00,41.2,23.0,29.86,ENE,68,9.0,13.0,48,0.00,,,0.00,VWS V14.01,2013-04-05 12:34:00,
2013-04-05 08:35:00,41.2,23.0,29.86,East,88,6.0,11.0,48,0.00,,,0.00,VWS V14.01,2013-04-05 12:35:00,
2013-04-05 08:37:00,41.2,22.5,29.86,ESE,114,3.0,11.0,47,0.00,,,0.00,VWS V14.01,2013-04-05 12:37:00,
2013-04-05 08:38:00,41.2,22.5,29.86,East,81,3.0,11.0,47,0.00,,,0.00,VWS V14.01,2013-04-05 12:38:00,
2013-04-05 08:39:00,41.2,23.0,29.86,East,99,4.0,11.0,48,0.00,,,0.00,VWS V14.01,2013-04-05 12:39:00,
2013-04-05 08:40:00,41.2,23.0,29.86,East,79,0.0,11.0,48,0.00,,,0.00,VWS V14.01,2013-04-05 12:40:00,
2013-04-05 08:41:00,41.3,22.6,29.86,East,86,6.0,11.0,47,0.00,,,0.00,VWS V14.01,2013-04-05 12:41:00,
2013-04-05 08:42:00,41.3,23.1,29.86,ESE,111,5.0,11.0,48,0.00,,,0.00,VWS V14.01,2013-04-05 12:42:00,
2013-04-05 08:43:00,41.3,23.1,29.86,East,98,7.0,11.0,48,0.00,,,0.00,VWS V14.01,2013-04-05 12:43:00,
2013-04-05 08:45:00,41.5,22.8,29.86,East,99,11.0,11.0,47,0.00,,,0.00,VWS V14.01,2013-04-05 12:45:00,
2013-04-05 08:47:00,41.5,22.8,29.85,ENE,72,3.0,14.0,47,0.00,,,0.00,VWS V14.01,2013-04-05 12:47:00,
2013-04-05 08:48:00,41.5,22.8,29.85,East,81,5.0,14.0,47,0.00,,,0.00,VWS V14.01,2013-04-05 12:48:00,
2013-04-05 08:50:00,41.6,22.9,29.85,East,94,10.0,11.0,47,0.00,,,0.00,VWS V14.01,2013-04-05 12:50:00,
2013-04-05 08:52:00,41.8,23.1,29.85,ENE,74,5.0,11.0,47,0.00,,,0.00,VWS V14.01,2013-04-05 12:52:00,
2013-04-05 08:53:00,41.8,22.5,29.85,East,98,9.0,11.0,46,0.00,,,0.00,VWS V14.01,2013-04-05 12:53:00,
2013-04-05 08:55:00,41.8,22.5,29.85,East,98,11.0,12.0,46,0.00,,,0.00,VWS V14.01,2013-04-05 12:55:00,
2013-04-05 08:57:00,41.8,22.5,29.85,East,90,4.0,12.0,46,0.00,,,0.00,VWS V14.01,2013-04-05 12:57:00,
2013-04-05 08:59:00,41.9,22.6,29.85,East,98,5.0,12.0,46,0.00,,,0.00,VWS V14.01,2013-04-05 12:59:00,
2013-04-05 09:00:00,42.0,22.7,29.85,East,90,7.0,9.0,46,0.00,,,0.00,VWS V14.01,2013-04-05 13:00:00,
2013-04-05 09:02:00,42.3,22.5,29.85,NE,35,0.0,10.0,45,0.00,,,0.00,VWS V14.01,2013-04-05 13:02:00,
2013-04-05 09:04:00,42.5,22.7,29.85,SE,133,5.0,11.0,45,0.00,,,0.00,VWS V14.01,2013-04-05 13:04:00,
2013-04-05 09:05:00,42.7,23.4,29.85,ENE,66,3.0,7.0,46,0.00,,,0.00,VWS V14.01,2013-04-05 13:05:00,
2013-04-05 09:07:00,43.1,23.2,29.85,East,82,4.0,11.0,45,0.00,,,0.00,VWS V14.01,2013-04-05 13:07:00,
2013-04-05 09:10:00,43.3,23.4,29.84,East,79,3.0,5.0,45,0.00,,,0.00,VWS V14.01,2013-04-05 13:10:00,
2013-04-05 09:12:00,43.3,22.9,29.84,East,101,2.0,13.0,44,0.00,,,0.00,VWS V14.01,2013-04-05 13:12:00,
2013-04-05 09:15:00,43.2,22.2,29.85,NE,55,4.0,5.0,43,0.00,,,0.00,VWS V14.01,2013-04-05 13:15:00,
2013-04-05 09:16:00,43.2,22.2,29.85,East,81,9.0,11.0,43,0.00,,,0.00,VWS V14.01,2013-04-05 13:16:00,
2013-04-05 09:18:00,42.9,22.0,29.84,ENE,60,11.0,11.0,43,0.00,,,0.00,VWS V14.01,2013-04-05 13:18:00,
2013-04-05 09:20:00,42.7,22.3,29.84,ESE,120,4.0,5.0,44,0.00,,,0.00,VWS V14.01,2013-04-05 13:20:00,
2013-04-05 09:21:00,42.7,21.8,29.84,NW,321,6.0,6.0,43,0.00,,,0.00,VWS V14.01,2013-04-05 13:21:00,
2013-04-05 09:24:00,42.5,22.1,29.84,East,90,3.0,6.0,44,0.00,,,0.00,VWS V14.01,2013-04-05 13:24:00,
2013-04-05 09:25:00,42.4,22.0,29.84,East,94,4.0,5.0,44,0.00,,,0.00,VWS V14.01,2013-04-05 13:25:00,
2013-04-05 09:26:00,42.4,22.6,29.84,ENE,75,5.0,6.0,45,0.00,,,0.00,VWS V14.01,2013-04-05 13:26:00,
2013-04-05 09:30:00,42.1,22.3,29.84,SE,139,3.0,5.0,45,0.00,,,0.00,VWS V14.01,2013-04-05 13:30:00,
2013-04-05 09:31:00,42.0,22.2,29.84,East,86,5.0,7.0,45,0.00,,,0.00,VWS V14.01,2013-04-05 13:31:00,
2013-04-05 09:32:00,42.0,22.2,29.84,East,88,4.0,7.0,45,0.00,,,0.00,VWS V14.01,2013-04-05 13:32:00,
2013-04-05 09:35:00,41.7,21.9,29.84,East,90,9.0,9.0,45,0.00,,,0.00,VWS V14.01,2013-04-05 13:35:00,
2013-04-05 09:36:00,41.6,22.4,29.84,East,86,6.0,9.0,46,0.00,,,0.00,VWS V14.01,2013-04-05 13:36:00,
2013-04-05 09:37:00,41.6,21.9,29.84,East,88,3.0,10.0,45,0.00,,,0.00,VWS V14.01,2013-04-05 13:37:00,
2013-04-05 09:40:00,41.5,21.8,29.84,East,96,7.0,7.0,45,0.00,,,0.00,VWS V14.01,2013-04-05 13:40:00,
2013-04-05 09:41:00,41.5,22.3,29.84,ENE,74,6.0,7.0,46,0.00,,,0.00,VWS V14.01,2013-04-05 13:41:00,
2013-04-05 09:42:00,41.5,22.3,29.84,East,92,7.0,7.0,46,0.00,,,0.00,VWS V14.01,2013-04-05 13:42:00,
2013-04-05 09:45:00,41.4,22.7,29.84,NNE,16,0.0,2.0,47,0.00,,,0.00,VWS V14.01,2013-04-05 13:45:00,
2013-04-05 09:46:00,41.4,22.7,29.84,ENE,67,2.0,2.0,47,0.00,,,0.00,VWS V14.01,2013-04-05 13:46:00,
2013-04-05 09:47:00,41.4,22.7,29.84,East,90,4.0,5.0,47,0.00,,,0.00,VWS V14.01,2013-04-05 13:47:00,
2013-04-05 09:50:00,41.5,22.3,29.84,East,84,8.0,8.0,46,0.00,,,0.00,VWS V14.01,2013-04-05 13:50:00,
2013-04-05 09:51:00,41.5,21.8,29.84,ESE,115,7.0,10.0,45,0.00,,,0.00,VWS V14.01,2013-04-05 13:51:00,
2013-04-05 09:52:00,41.4,21.7,29.84,ESE,115,1.0,10.0,45,0.00,,,0.00,VWS V14.01,2013-04-05 13:52:00,
2013-04-05 09:53:00,41.4,21.7,29.84,NE,53,4.0,10.0,45,0.00,,,0.00,VWS V14.01,2013-04-05 13:53:00,
2013-04-05 09:55:00,41.4,22.2,29.84,ENE,68,3.0,10.0,46,0.00,,,0.00,VWS V14.01,2013-04-05 13:55:00,
2013-04-05 09:56:00,41.4,22.7,29.84,ENE,68,0.0,3.0,47,0.00,,,0.00,VWS V14.01,2013-04-05 13:56:00,
2013-04-05 09:57:00,41.4,22.2,29.84,East,81,3.0,6.0,46,0.00,,,0.00,VWS V14.01,2013-04-05 13:57:00,
2013-04-05 09:58:00,41.4,22.2,29.84,East,91,4.0,6.0,46,0.00,,,0.00,VWS V14.01,2013-04-05 13:58:00,
2013-04-05 10:00:00,41.3,22.1,29.84,East,92,0.0,6.0,46,0.00,,,0.00,VWS V14.01,2013-04-05 14:00:00,
2013-04-05 10:02:00,41.3,22.1,29.84,NW,323,0.0,4.0,46,0.00,,,0.00,VWS V14.01,2013-04-05 14:02:00,
2013-04-05 10:03:00,41.2,22.0,29.84,ENE,57,0.0,4.0,46,0.00,,,0.00,VWS V14.01,2013-04-05 14:03:00,
2013-04-05 10:05:00,41.2,22.5,29.84,East,96,3.0,4.0,47,0.00,,,0.00,VWS V14.01,2013-04-05 14:05:00,
2013-04-05 10:07:00,41.2,22.5,29.84,East,94,2.0,3.0,47,0.00,,,0.00,VWS V14.01,2013-04-05 14:07:00,
2013-04-05 10:08:00,41.2,22.5,29.84,East,93,5.0,6.0,47,0.00,,,0.00,VWS V14.01,2013-04-05 14:08:00,
2013-04-05 10:10:00,41.2,22.5,29.84,East,92,4.0,6.0,47,0.00,,,0.00,VWS V14.01,2013-04-05 14:10:00,
2013-04-05 10:12:00,41.2,22.5,29.84,North,9,0.0,5.0,47,0.00,,,0.00,VWS V14.01,2013-04-05 14:12:00,
2013-04-05 10:13:00,41.2,22.5,29.84,East,101,1.0,5.0,47,0.00,,,0.00,VWS V14.01,2013-04-05 14:13:00,
2013-04-05 10:15:00,41.2,22.0,29.84,East,92,2.0,5.0,46,0.00,,,0.00,VWS V14.01,2013-04-05 14:15:00,
2013-04-05 10:17:00,41.3,22.1,29.84,East,80,0.0,4.0,46,0.00,,,0.00,VWS V14.01,2013-04-05 14:17:00,
2013-04-05 10:18:00,41.3,22.1,29.84,East,81,1.0,4.0,46,0.00,,,0.00,VWS V14.01,2013-04-05 14:18:00,
2013-04-05 10:20:00,41.4,22.2,29.84,East,90,5.0,6.0,46,0.00,,,0.00,VWS V14.01,2013-04-05 14:20:00,
2013-04-05 10:22:00,41.5,22.3,29.84,NNW,340,5.0,8.0,46,0.00,,,0.00,VWS V14.01,2013-04-05 14:22:00,
2013-04-05 10:23:00,41.5,22.3,29.84,NNW,346,5.0,8.0,46,0.00,,,0.00,VWS V14.01,2013-04-05 14:23:00,
2013-04-05 10:25:00,41.6,22.4,29.84,East,79,0.0,8.0,46,0.00,,,0.00,VWS V14.01,2013-04-05 14:25:00,
2013-04-05 10:28:00,41.8,22.5,29.84,NNE,22,3.0,3.0,46,0.00,,,0.00,VWS V14.01,2013-04-05 14:28:00,
2013-04-05 10:29:00,41.9,22.6,29.84,East,90,3.0,6.0,46,0.00,,,0.00,VWS V14.01,2013-04-05 14:29:00,
2013-04-05 10:30:00,41.9,22.6,29.84,NNW,336,1.0,6.0,46,0.00,,,0.00,VWS V14.01,2013-04-05 14:30:00,
2013-04-05 10:33:00,42.4,23.6,29.83,East,87,0.0,5.0,47,0.00,,,0.00,VWS V14.01,2013-04-05 14:33:00,
2013-04-05 10:34:00,42.5,24.2,29.83,East,87,2.0,5.0,48,0.00,,,0.00,VWS V14.01,2013-04-05 14:34:00,
2013-04-05 10:35:00,42.6,23.3,29.83,East,97,4.0,5.0,46,0.00,,,0.00,VWS V14.01,2013-04-05 14:35:00,
2013-04-05 10:39:00,42.8,22.4,29.84,North,360,2.0,6.0,44,0.00,,,0.00,VWS V14.01,2013-04-05 14:39:00,
2013-04-05 10:40:00,42.9,23.0,29.84,ENE,60,1.0,2.0,45,0.00,,,0.00,VWS V14.01,2013-04-05 14:40:00,
2013-04-05 10:41:00,42.9,23.0,29.83,East,97,6.0,7.0,45,0.00,,,0.00,VWS V14.01,2013-04-05 14:41:00,
2013-04-05 10:44:00,42.9,22.5,29.84,North,355,3.0,7.0,44,0.00,,,0.00,VWS V14.01,2013-04-05 14:44:00,
2013-04-05 10:45:00,42.9,22.5,29.84,North,351,2.0,4.0,44,0.00,,,0.00,VWS V14.01,2013-04-05 14:45:00,
2013-04-05 10:46:00,42.9,22.5,29.84,ENE,68,4.0,4.0,44,0.00,,,0.00,VWS V14.01,2013-04-05 14:46:00,
2013-04-05 10:50:00,42.9,23.0,29.83,East,92,2.0,4.0,45,0.00,,,0.00,VWS V14.01,2013-04-05 14:50:00,
2013-04-05 10:51:00,42.9,22.5,29.84,North,355,5.0,6.0,44,0.00,,,0.00,VWS V14.01,2013-04-05 14:51:00,
2013-04-05 10:55:00,43.0,22.6,29.83,NNE,16,5.0,6.0,44,0.00,,,0.00,VWS V14.01,2013-04-05 14:55:00,
2013-04-05 10:56:00,43.0,22.0,29.83,NNE,18,1.0,6.0,43,0.00,,,0.00,VWS V14.01,2013-04-05 14:56:00,
2013-04-05 11:00:00,43.5,22.5,29.83,ENE,59,3.0,6.0,43,0.00,,,0.00,VWS V14.01,2013-04-05 15:00:00,
2013-04-05 11:01:00,43.8,23.3,29.83,NNE,30,1.0,5.0,44,0.00,,,0.00,VWS V14.01,2013-04-05 15:01:00,
2013-04-05 11:02:00,44.0,24.0,29.83,East,95,7.0,8.0,45,0.00,,,0.00,VWS V14.01,2013-04-05 15:02:00,
2013-04-05 11:05:00,44.6,23.5,29.83,ESE,112,5.0,9.0,43,0.00,,,0.00,VWS V14.01,2013-04-05 15:05:00,
2013-04-05 11:06:00,44.8,23.7,29.83,SSE,163,1.0,7.0,43,0.00,,,0.00,VWS V14.01,2013-04-05 15:06:00,
2013-04-05 11:07:00,45.0,24.4,29.84,South,182,2.0,7.0,44,0.00,,,0.00,VWS V14.01,2013-04-05 15:07:00,
2013-04-05 11:10:00,45.5,23.2,29.83,ENE,61,2.0,7.0,41,0.00,,,0.00,VWS V14.01,2013-04-05 15:10:00,
2013-04-05 11:11:00,45.8,25.1,29.83,East,87,2.0,5.0,44,0.00,,,0.00,VWS V14.01,2013-04-05 15:11:00,
2013-04-05 11:12:00,45.9,25.2,29.83,NNW,335,3.0,5.0,44,0.00,,,0.00,VWS V14.01,2013-04-05 15:12:00,
2013-04-05 11:15:00,46.1,23.1,29.83,ESE,103,4.0,9.0,40,0.00,,,0.00,VWS V14.01,2013-04-05 15:15:00,
2013-04-05 11:17:00,45.9,24.1,29.83,East,81,1.0,10.0,42,0.00,,,0.00,VWS V14.01,2013-04-05 15:17:00,
2013-04-05 11:18:00,45.9,23.5,29.83,NE,48,1.0,10.0,41,0.00,,,0.00,VWS V14.01,2013-04-05 15:18:00,
2013-04-05 11:20:00,45.9,23.5,29.83,East,101,2.0,10.0,41,0.00,,,0.00,VWS V14.01,2013-04-05 15:20:00,
2013-04-05 11:22:00,45.7,22.8,29.83,East,82,4.0,7.0,40,0.00,,,0.00,VWS V14.01,2013-04-05 15:22:00,
2013-04-05 11:23:00,45.7,22.8,29.83,SSE,155,2.0,7.0,40,0.00,,,0.00,VWS V14.01,2013-04-05 15:23:00,
2013-04-05 11:25:00,45.7,23.4,29.83,East,96,5.0,8.0,41,0.00,,,0.00,VWS V14.01,2013-04-05 15:25:00,
2013-04-05 11:27:00,45.6,23.9,29.83,East,95,4.0,5.0,42,0.00,,,0.00,VWS V14.01,2013-04-05 15:27:00,
2013-04-05 11:28:00,45.6,23.9,29.83,ENE,74,5.0,5.0,42,0.00,,,0.00,VWS V14.01,2013-04-05 15:28:00,
2013-04-05 11:30:00,45.5,23.8,29.83,ENE,61,3.0,5.0,42,0.00,,,0.00,VWS V14.01,2013-04-05 15:30:00,
2013-04-05 11:32:00,45.4,23.7,29.83,East,85,5.0,11.0,42,0.00,,,0.00,VWS V14.01,2013-04-05 15:32:00,
2013-04-05 11:33:00,45.3,23.6,29.83,NNE,30,1.0,11.0,42,0.00,,,0.00,VWS V14.01,2013-04-05 15:33:00,
2013-04-05 11:35:00,45.1,23.4,29.83,NNW,347,4.0,11.0,42,0.00,,,0.00,VWS V14.01,2013-04-05 15:35:00,
2013-04-05 11:38:00,45.1,23.4,29.82,SE,146,2.0,5.0,42,0.00,,,0.00,VWS V14.01,2013-04-05 15:38:00,
2013-04-05 11:39:00,45.0,23.3,29.82,ESE,121,6.0,13.0,42,0.00,,,0.00,VWS V14.01,2013-04-05 15:39:00,
2013-04-05 11:40:00,45.0,23.3,29.82,ENE,70,5.0,13.0,42,0.00,,,0.00,VWS V14.01,2013-04-05 15:40:00,
2013-04-05 11:43:00,45.1,24.0,29.82,East,92,10.0,10.0,43,0.00,,,0.00,VWS V14.01,2013-04-05 15:43:00,
2013-04-05 11:44:00,45.1,24.0,29.82,East,88,0.0,11.0,43,0.00,,,0.00,VWS V14.01,2013-04-05 15:44:00,
2013-04-05 11:45:00,45.1,24.0,29.82,East,88,0.0,11.0,43,0.00,,,0.00,VWS V14.01,2013-04-05 15:45:00,
2013-04-05 11:48:00,45.2,23.5,29.82,East,89,3.0,6.0,42,0.00,,,0.00,VWS V14.01,2013-04-05 15:48:00,
2013-04-05 11:49:00,45.4,24.2,29.82,NNE,17,4.0,4.0,43,0.00,,,0.00,VWS V14.01,2013-04-05 15:49:00,
2013-04-05 11:50:00,45.4,24.2,29.82,NNE,13,2.0,6.0,43,0.00,,,0.00,VWS V14.01,2013-04-05 15:50:00,
2013-04-05 11:53:00,45.8,24.0,29.82,West,265,3.0,9.0,42,0.00,,,0.00,VWS V14.01,2013-04-05 15:53:00,
2013-04-05 11:55:00,46.1,25.4,29.82,North,355,2.0,9.0,44,0.00,,,0.00,VWS V14.01,2013-04-05 15:55:00,
2013-04-05 11:58:00,46.7,25.4,29.82,ESE,110,5.0,6.0,43,0.00,,,0.00,VWS V14.01,2013-04-05 15:58:00,
2013-04-05 11:59:00,47.0,24.5,29.82,SSW,209,2.0,9.0,41,0.00,,,0.00,VWS V14.01,2013-04-05 15:59:00,
2013-04-05 12:00:00,47.0,25.1,29.82,East,98,2.0,2.0,42,0.00,,,0.00,VWS V14.01,2013-04-05 16:00:00,
2013-04-05 12:03:00,47.4,24.3,29.82,NNE,17,4.0,11.0,40,0.00,,,0.00,VWS V14.01,2013-04-05 16:03:00,
2013-04-05 12:04:00,47.5,24.4,29.82,ENE,65,5.0,11.0,40,0.00,,,0.00,VWS V14.01,2013-04-05 16:04:00,
2013-04-05 12:05:00,47.5,24.4,29.82,ENE,72,3.0,3.0,40,0.00,,,0.00,VWS V14.01,2013-04-05 16:05:00,
2013-04-05 12:08:00,47.8,26.4,29.82,SSW,198,1.0,6.0,43,0.00,,,0.00,VWS V14.01,2013-04-05 16:08:00,
2013-04-05 12:09:00,48.3,26.9,29.82,East,101,3.0,11.0,43,0.00,,,0.00,VWS V14.01,2013-04-05 16:09:00,
2013-04-05 12:10:00,48.5,27.0,29.82,SE,127,3.0,9.0,43,0.00,,,0.00,VWS V14.01,2013-04-05 16:10:00,
2013-04-05 12:13:00,48.7,25.5,29.82,East,94,4.0,9.0,40,0.00,,,0.00,VWS V14.01,2013-04-05 16:13:00,
2013-04-05 12:14:00,48.4,24.6,29.82,SE,144,6.0,9.0,39,0.00,,,0.00,VWS V14.01,2013-04-05 16:14:00,
2013-04-05 12:15:00,48.3,24.5,29.82,South,178,1.0,7.0,39,0.00,,,0.00,VWS V14.01,2013-04-05 16:15:00,
2013-04-05 12:18:00,48.1,24.9,29.81,NNE,15,4.0,8.0,40,0.00,,,0.00,VWS V14.01,2013-04-05 16:18:00,
2013-04-05 12:19:00,48.1,26.7,29.81,East,91,4.0,8.0,43,0.00,,,0.00,VWS V14.01,2013-04-05 16:19:00,
2013-04-05 12:20:00,48.2,26.8,29.81,ESE,110,4.0,6.0,43,0.00,,,0.00,VWS V14.01,2013-04-05 16:20:00,
2013-04-05 12:23:00,48.6,25.4,29.82,South,169,3.0,11.0,40,0.00,,,0.00,VWS V14.01,2013-04-05 16:23:00,
2013-04-05 12:25:00,48.7,26.6,29.82,SSE,155,1.0,5.0,42,0.00,,,0.00,VWS V14.01,2013-04-05 16:25:00,
2013-04-05 12:26:00,48.8,26.7,29.82,SW,215,3.0,5.0,42,0.00,,,0.00,VWS V14.01,2013-04-05 16:26:00,
2013-04-05 12:27:00,48.9,25.7,29.82,ENE,65,5.0,5.0,40,0.00,,,0.00,VWS V14.01,2013-04-05 16:27:00,
2013-04-05 12:28:00,48.7,25.5,29.81,East,91,6.0,6.0,40,0.00,,,0.00,VWS V14.01,2013-04-05 16:28:00,
2013-04-05 12:30:00,48.1,24.9,29.81,SE,126,2.0,5.0,40,0.00,,,0.00,VWS V14.01,2013-04-05 16:30:00,
2013-04-05 12:31:00,47.8,24.1,29.81,SE,126,2.0,5.0,39,0.00,,,0.00,VWS V14.01,2013-04-05 16:31:00,
2013-04-05 12:32:00,47.6,25.1,29.81,SE,126,1.0,5.0,41,0.00,,,0.00,VWS V14.01,2013-04-05 16:32:00,
2013-04-05 12:34:00,47.3,24.8,29.82,East,88,5.0,5.0,41,0.00,,,0.00,VWS V14.01,2013-04-05 16:34:00,
2013-04-05 12:35:00,47.1,24.6,29.82,East,84,3.0,5.0,41,0.00,,,0.00,VWS V14.01,2013-04-05 16:35:00,
2013-04-05 12:36:00,46.9,25.0,29.81,East,84,1.0,5.0,42,0.00,,,0.00,VWS V14.01,2013-04-05 16:36:00,
2013-04-05 12:37:00,46.8,24.9,29.81,East,84,1.0,5.0,42,0.00,,,0.00,VWS V14.01,2013-04-05 16:37:00,
2013-04-05 12:39:00,46.7,24.8,29.81,East,84,0.0,5.0,42,0.00,,,0.00,VWS V14.01,2013-04-05 16:39:00,
2013-04-05 12:40:00,46.7,24.8,29.81,East,84,0.0,5.0,42,0.00,,,0.00,VWS V14.01,2013-04-05 16:40:00,
2013-04-05 12:41:00,46.7,24.3,29.81,East,84,1.0,1.0,41,0.00,,,0.00,VWS V14.01,2013-04-05 16:41:00,
2013-04-05 12:42:00,46.6,24.8,29.81,East,84,2.0,3.0,42,0.00,,,0.00,VWS V14.01,2013-04-05 16:42:00,
2013-04-05 12:44:00,46.4,24.6,29.81,East,84,0.0,3.0,42,0.00,,,0.00,VWS V14.01,2013-04-05 16:44:00,
2013-04-05 12:45:00,46.4,24.6,29.81,East,84,0.0,3.0,42,0.00,,,0.00,VWS V14.01,2013-04-05 16:45:00,
2013-04-05 12:46:00,46.4,24.6,29.81,SSW,192,3.0,4.0,42,0.00,,,0.00,VWS V14.01,2013-04-05 16:46:00,
2013-04-05 12:47:00,46.5,24.7,29.81,SE,132,2.0,6.0,42,0.00,,,0.00,VWS V14.01,2013-04-05 16:47:00,
2013-04-05 12:48:00,46.5,24.7,29.81,SE,132,2.0,6.0,42,0.00,,,0.00,VWS V14.01,2013-04-05 16:48:00,
2013-04-05 12:49:00,46.5,24.1,29.81,SE,130,2.0,6.0,41,0.00,,,0.00,VWS V14.01,2013-04-05 16:49:00,
2013-04-05 12:50:00,46.5,24.1,29.81,SE,130,1.0,6.0,41,0.00,,,0.00,VWS V14.01,2013-04-05 16:50:00,
2013-04-05 12:51:00,46.5,24.1,29.81,NNE,20,0.0,3.0,41,0.00,,,0.00,VWS V14.01,2013-04-05 16:51:00,
2013-04-05 12:52:00,46.6,24.8,29.81,WSW,243,1.0,5.0,42,0.00,,,0.00,VWS V14.01,2013-04-05 16:52:00,
2013-04-05 12:53:00,46.6,24.8,29.81,SSE,163,3.0,5.0,42,0.00,,,0.00,VWS V14.01,2013-04-05 16:53:00,
2013-04-05 12:54:00,46.7,26.0,29.81,ESE,105,4.0,5.0,44,0.00,,,0.00,VWS V14.01,2013-04-05 16:54:00,
2013-04-05 12:55:00,46.7,26.0,29.81,SW,217,4.0,5.0,44,0.00,,,0.00,VWS V14.01,2013-04-05 16:55:00,
2013-04-05 12:56:00,46.7,26.0,29.81,SE,142,3.0,9.0,44,0.00,,,0.00,VWS V14.01,2013-04-05 16:56:00,
2013-04-05 12:58:00,46.7,26.5,29.81,SW,227,1.0,9.0,45,0.00,,,0.00,VWS V14.01,2013-04-05 16:58:00,
2013-04-05 12:59:00,46.7,27.0,29.81,SW,227,3.0,9.0,46,0.00,,,0.00,VWS V14.01,2013-04-05 16:59:00,
2013-04-05 13:00:00,46.7,27.0,29.81,SW,232,2.0,4.0,46,0.00,,,0.00,VWS V14.01,2013-04-05 17:00:00,
2013-04-05 13:02:00,46.8,27.6,29.81,West,277,8.0,11.0,47,0.00,,,0.00,VWS V14.01,2013-04-05 17:02:00,
2013-04-05 13:03:00,46.9,27.7,29.81,East,90,2.0,11.0,47,0.00,,,0.00,VWS V14.01,2013-04-05 17:03:00,
2013-04-05 13:04:00,46.9,27.2,29.81,WSW,244,10.0,11.0,46,0.00,,,0.00,VWS V14.01,2013-04-05 17:04:00,
2013-04-05 13:05:00,46.9,27.2,29.81,WSW,246,5.0,10.0,46,0.00,,,0.00,VWS V14.01,2013-04-05 17:05:00,
2013-04-05 13:07:00,47.0,27.3,29.81,SW,222,2.0,10.0,46,0.00,,,0.00,VWS V14.01,2013-04-05 17:07:00,
2013-04-05 13:08:00,47.2,27.5,29.81,East,92,4.0,10.0,46,0.00,,,0.00,VWS V14.01,2013-04-05 17:08:00,
2013-04-05 13:10:00,47.5,27.8,29.81,East,88,2.0,2.0,46,0.00,,,0.00,VWS V14.01,2013-04-05 17:10:00,
2013-04-05 13:12:00,47.8,28.0,29.81,NE,56,2.0,5.0,46,0.00,,,0.00,VWS V14.01,2013-04-05 17:12:00,
2013-04-05 13:13:00,48.0,27.7,29.81,SW,233,0.0,9.0,45,0.00,,,0.00,VWS V14.01,2013-04-05 17:13:00,
2013-04-05 13:15:00,48.1,27.8,29.81,SSW,208,3.0,3.0,45,0.00,,,0.00,VWS V14.01,2013-04-05 17:15:00,
2013-04-05 13:17:00,48.1,27.8,29.81,South,175,5.0,5.0,45,0.00,,,0.00,VWS V14.01,2013-04-05 17:17:00,
2013-04-05 13:19:00,48.3,28.0,29.81,WSW,253,4.0,9.0,45,0.00,,,0.00,VWS V14.01,2013-04-05 17:19:00,
2013-04-05 13:20:00,48.5,28.7,29.81,ENE,68,4.0,5.0,46,0.00,,,0.00,VWS V14.01,2013-04-05 17:20:00,
2013-04-05 13:21:00,48.6,28.2,29.81,North,355,3.0,6.0,45,0.00,,,0.00,VWS V14.01,2013-04-05 17:21:00,
2013-04-05 13:22:00,48.6,28.8,29.81,East,96,5.0,11.0,46,0.00,,,0.00,VWS V14.01,2013-04-05 17:22:00,
2013-04-05 13:24:00,48.9,28.5,29.81,South,172,4.0,11.0,45,0.00,,,0.00,VWS V14.01,2013-04-05 17:24:00,
2013-04-05 13:25:00,49.1,29.2,29.81,East,101,5.0,9.0,46,0.00,,,0.00,VWS V14.01,2013-04-05 17:25:00,
2013-04-05 13:27:00,49.4,29.5,29.80,East,94,8.0,11.0,46,0.00,,,0.00,VWS V14.01,2013-04-05 17:27:00,
2013-04-05 13:28:00,49.4,29.5,29.81,ESE,110,1.0,11.0,46,0.00,,,0.00,VWS V14.01,2013-04-05 17:28:00,
2013-04-05 13:29:00,49.4,30.0,29.81,ESE,110,1.0,11.0,47,0.00,,,0.00,VWS V14.01,2013-04-05 17:29:00,
2013-04-05 13:30:00,49.6,30.2,29.81,SE,146,3.0,6.0,47,0.00,,,0.00,VWS V14.01,2013-04-05 17:30:00,
2013-04-05 13:32:00,49.4,29.5,29.81,North,351,2.0,11.0,46,0.00,,,0.00,VWS V14.01,2013-04-05 17:32:00,
2013-04-05 13:33:00,49.3,29.9,29.81,WSW,252,5.0,11.0,47,0.00,,,0.00,VWS V14.01,2013-04-05 17:33:00,
2013-04-05 13:34:00,49.2,29.9,29.81,SSW,213,1.0,11.0,47,0.00,,,0.00,VWS V14.01,2013-04-05 17:34:00,
2013-04-05 13:35:00,49.2,29.3,29.81,SW,230,11.0,12.0,46,0.00,,,0.00,VWS V14.01,2013-04-05 17:35:00,
2013-04-05 13:37:00,49.2,30.4,29.81,WSW,247,5.0,12.0,48,0.00,,,0.00,VWS V14.01,2013-04-05 17:37:00,
2013-04-05 13:38:00,49.2,30.4,29.81,SW,217,5.0,17.0,48,0.00,,,0.00,VWS V14.01,2013-04-05 17:38:00,
2013-04-05 13:39:00,49.2,29.9,29.80,South,182,1.0,17.0,47,0.00,,,0.00,VWS V14.01,2013-04-05 17:39:00,
2013-04-05 13:40:00,49.2,29.9,29.81,SW,223,2.0,5.0,47,0.00,,,0.00,VWS V14.01,2013-04-05 17:40:00,
2013-04-05 13:42:00,49.2,30.4,29.80,WSW,242,0.0,5.0,48,0.00,,,0.00,VWS V14.01,2013-04-05 17:42:00,
2013-04-05 13:43:00,49.4,30.5,29.80,South,169,1.0,5.0,48,0.00,,,0.00,VWS V14.01,2013-04-05 17:43:00,
2013-04-05 13:44:00,49.6,30.7,29.80,East,88,4.0,11.0,48,0.00,,,0.00,VWS V14.01,2013-04-05 17:44:00,
2013-04-05 13:45:00,49.7,31.3,29.80,SSE,153,6.0,6.0,49,0.00,,,0.00,VWS V14.01,2013-04-05 17:45:00,
2013-04-05 13:47:00,49.7,29.8,29.81,SW,226,4.0,12.0,46,0.00,,,0.00,VWS V14.01,2013-04-05 17:47:00,
2013-04-05 13:48:00,49.6,29.7,29.81,WSW,246,10.0,15.0,46,0.00,,,0.00,VWS V14.01,2013-04-05 17:48:00,
2013-04-05 13:49:00,49.1,29.2,29.81,WNW,283,3.0,15.0,46,0.00,,,0.00,VWS V14.01,2013-04-05 17:49:00,
2013-04-05 13:50:00,48.6,29.3,29.81,SSW,213,1.0,4.0,47,0.00,,,0.00,VWS V14.01,2013-04-05 17:50:00,
2013-04-05 13:53:00,48.1,29.4,29.81,WNW,298,2.0,5.0,48,0.00,,,0.00,VWS V14.01,2013-04-05 17:53:00,
2013-04-05 13:55:00,47.5,28.3,29.81,SW,234,5.0,10.0,47,0.00,,,0.00,VWS V14.01,2013-04-05 17:55:00,
2013-04-05 13:56:00,47.3,28.6,29.81,SW,236,5.0,10.0,48,0.00,,,0.00,VWS V14.01,2013-04-05 17:56:00,
2013-04-05 13:58:00,46.8,28.7,29.81,SW,223,2.0,10.0,49,0.00,,,0.00,VWS V14.01,2013-04-05 17:58:00,
2013-04-05 13:59:00,46.7,28.6,29.81,NW,315,2.0,10.0,49,0.00,,,0.00,VWS V14.01,2013-04-05 17:59:00,
2013-04-05 14:00:00,46.4,28.3,29.81,SW,232,3.0,11.0,49,0.00,,,0.00,VWS V14.01,2013-04-05 18:00:00,
2013-04-05 14:01:00,46.3,28.2,29.81,WSW,242,1.0,11.0,49,0.00,,,0.00,VWS V14.01,2013-04-05 18:01:00,
2013-04-05 14:03:00,46.1,28.0,29.81,WSW,244,0.0,11.0,49,0.00,,,0.00,VWS V14.01,2013-04-05 18:03:00,
2013-04-05 14:04:00,46.0,28.4,29.81,ESE,115,5.0,11.0,50,0.00,,,0.00,VWS V14.01,2013-04-05 18:04:00,
2013-04-05 14:05:00,45.9,28.3,29.81,SSE,157,1.0,10.0,50,0.00,,,0.00,VWS V14.01,2013-04-05 18:05:00,
2013-04-05 14:06:00,45.9,28.3,29.81,North,355,2.0,10.0,50,0.00,,,0.00,VWS V14.01,2013-04-05 18:06:00,
2013-04-05 14:08:00,45.8,27.7,29.81,WNW,290,5.0,10.0,49,0.00,,,0.00,VWS V14.01,2013-04-05 18:08:00,
2013-04-05 14:09:00,45.7,27.6,29.81,West,271,3.0,10.0,49,0.00,,,0.00,VWS V14.01,2013-04-05 18:09:00,
2013-04-05 14:10:00,45.6,28.0,29.81,SSW,201,6.0,6.0,50,0.00,,,0.00,VWS V14.01,2013-04-05 18:10:00,
2013-04-05 14:12:00,45.6,27.6,29.80,SSW,209,2.0,6.0,49,0.00,,,0.00,VWS V14.01,2013-04-05 18:12:00,
2013-04-05 14:13:00,45.6,28.5,29.80,SSW,195,5.0,6.0,51,0.00,,,0.00,VWS V14.01,2013-04-05 18:13:00,
2013-04-05 14:14:00,45.9,28.3,29.80,WSW,250,4.0,5.0,50,0.00,,,0.00,VWS V14.01,2013-04-05 18:14:00,
2013-04-05 14:15:00,46.0,27.9,29.80,SW,221,3.0,13.0,49,0.00,,,0.00,VWS V14.01,2013-04-05 18:15:00,
2013-04-05 14:17:00,46.1,28.0,29.80,SW,223,5.0,13.0,49,0.00,,,0.00,VWS V14.01,2013-04-05 18:17:00,
2013-04-05 14:18:00,46.2,27.6,29.80,SW,229,3.0,14.0,48,0.00,,,0.00,VWS V14.01,2013-04-05 18:18:00,
2013-04-05 14:20:00,46.2,27.1,29.80,SW,232,0.0,5.0,47,0.00,,,0.00,VWS V14.01,2013-04-05 18:20:00,
2013-04-05 14:22:00,46.3,28.2,29.80,WSW,245,6.0,6.0,49,0.00,,,0.00,VWS V14.01,2013-04-05 18:22:00,
2013-04-05 14:23:00,46.3,28.7,29.80,WSW,238,6.0,14.0,50,0.00,,,0.00,VWS V14.01,2013-04-05 18:23:00,
2013-04-05 14:25:00,46.4,27.8,29.80,WSW,249,3.0,6.0,48,0.00,,,0.00,VWS V14.01,2013-04-05 18:25:00,
2013-04-05 14:26:00,46.3,28.2,29.80,WSW,254,4.0,6.0,49,0.00,,,0.00,VWS V14.01,2013-04-05 18:26:00,
2013-04-05 14:27:00,46.3,28.2,29.80,SSW,198,2.0,6.0,49,0.00,,,0.00,VWS V14.01,2013-04-05 18:27:00,
2013-04-05 14:29:00,46.1,28.0,29.80,SE,124,1.0,10.0,49,0.00,,,0.00,VWS V14.01,2013-04-05 18:29:00,
2013-04-05 14:30:00,45.8,27.7,29.80,SSW,213,1.0,6.0,49,0.00,,,0.00,VWS V14.01,2013-04-05 18:30:00,
2013-04-05 14:31:00,45.7,27.6,29.80,WSW,241,7.0,9.0,49,0.00,,,0.00,VWS V14.01,2013-04-05 18:31:00,
2013-04-05 14:32:00,45.7,27.6,29.80,SW,221,9.0,12.0,49,0.00,,,0.00,VWS V14.01,2013-04-05 18:32:00,
2013-04-05 14:34:00,45.5,27.5,29.80,SW,236,0.0,12.0,49,0.00,,,0.00,VWS V14.01,2013-04-05 18:34:00,
2013-04-05 14:35:00,45.4,27.4,29.80,SSW,211,6.0,11.0,49,0.00,,,0.00,VWS V14.01,2013-04-05 18:35:00,
2013-04-05 14:37:00,45.3,27.3,29.80,SSW,198,2.0,11.0,49,0.00,,,0.00,VWS V14.01,2013-04-05 18:37:00,
2013-04-05 14:39:00,45.2,27.7,29.80,SW,215,1.0,11.0,50,0.00,,,0.00,VWS V14.01,2013-04-05 18:39:00,
2013-04-05 14:40:00,45.2,28.2,29.80,SW,216,0.0,2.0,51,0.00,,,0.00,VWS V14.01,2013-04-05 18:40:00,
2013-04-05 14:42:00,45.3,27.3,29.80,SW,231,3.0,9.0,49,0.00,,,0.00,VWS V14.01,2013-04-05 18:42:00,
2013-04-05 14:43:00,45.4,27.4,29.80,SE,126,1.0,9.0,49,0.00,,,0.00,VWS V14.01,2013-04-05 18:43:00,
2013-04-05 14:44:00,45.4,27.4,29.80,SW,222,5.0,9.0,49,0.00,,,0.00,VWS V14.01,2013-04-05 18:44:00,
2013-04-05 14:45:00,45.4,27.9,29.80,ESE,103,4.0,6.0,50,0.00,,,0.00,VWS V14.01,2013-04-05 18:45:00,
2013-04-05 14:47:00,45.4,27.9,29.79,SW,215,2.0,6.0,50,0.00,,,0.00,VWS V14.01,2013-04-05 18:47:00,
2013-04-05 14:48:00,45.5,28.0,29.80,SW,227,8.0,10.0,50,0.00,,,0.00,VWS V14.01,2013-04-05 18:48:00,
2013-04-05 14:49:00,45.6,28.0,29.80,WNW,292,5.0,10.0,50,0.00,,,0.00,VWS V14.01,2013-04-05 18:49:00,
2013-04-05 14:50:00,45.8,27.7,29.80,WSW,246,12.0,15.0,49,0.00,,,0.00,VWS V14.01,2013-04-05 18:50:00,
2013-04-05 14:52:00,46.0,27.9,29.80,SSW,211,5.0,15.0,49,0.00,,,0.00,VWS V14.01,2013-04-05 18:52:00,
2013-04-05 14:53:00,46.1,28.0,29.80,WSW,252,10.0,15.0,49,0.00,,,0.00,VWS V14.01,2013-04-05 18:53:00,
2013-04-05 14:54:00,46.2,27.1,29.79,WSW,257,1.0,15.0,47,0.00,,,0.00,VWS V14.01,2013-04-05 18:54:00,
2013-04-05 14:55:00,46.2,28.1,29.79,West,266,1.0,5.0,49,0.00,,,0.00,VWS V14.01,2013-04-05 18:55:00,
2013-04-05 14:57:00,46.3,27.7,29.79,SW,232,7.0,14.0,48,0.00,,,0.00,VWS V14.01,2013-04-05 18:57:00,
2013-04-05 14:59:00,46.2,27.6,29.79,SW,232,4.0,14.0,48,0.00,,,0.00,VWS V14.01,2013-04-05 18:59:00,
2013-04-05 15:00:00,46.2,27.1,29.79,West,276,5.0,11.0,47,0.00,,,0.00,VWS V14.01,2013-04-05 19:00:00,
2013-04-05 15:02:00,46.1,27.5,29.79,SW,222,11.0,11.0,48,0.00,,,0.00,VWS V14.01,2013-04-05 19:02:00,
2013-04-05 15:04:00,46.1,27.0,29.79,SW,228,9.0,11.0,47,0.00,,,0.00,VWS V14.01,2013-04-05 19:04:00,
2013-04-05 15:05:00,46.1,27.0,29.79,SSW,213,13.0,13.0,47,0.00,,,0.00,VWS V14.01,2013-04-05 19:05:00,
2013-04-05 15:06:00,45.8,26.7,29.79,NW,310,6.0,15.0,47,0.00,,,0.00,VWS V14.01,2013-04-05 19:06:00,
2013-04-05 15:07:00,45.7,26.6,29.79,WSW,240,6.0,15.0,47,0.00,,,0.00,VWS V14.01,2013-04-05 19:07:00,
2013-04-05 15:09:00,45.3,26.8,29.79,WSW,240,7.0,7.0,48,0.00,,,0.00,VWS V14.01,2013-04-05 19:09:00,
2013-04-05 15:10:00,45.2,26.7,29.79,WSW,242,1.0,7.0,48,0.00,,,0.00,VWS V14.01,2013-04-05 19:10:00,
2013-04-05 15:12:00,45.1,26.6,29.79,SW,235,3.0,7.0,48,0.00,,,0.00,VWS V14.01,2013-04-05 19:12:00,
2013-04-05 15:14:00,45.0,26.5,29.79,WSW,245,5.0,10.0,48,0.00,,,0.00,VWS V14.01,2013-04-05 19:14:00,
2013-04-05 15:15:00,45.1,26.6,29.79,WSW,251,5.0,5.0,48,0.00,,,0.00,VWS V14.01,2013-04-05 19:15:00,
2013-04-05 15:17:00,45.1,26.6,29.79,WSW,243,5.0,10.0,48,0.00,,,0.00,VWS V14.01,2013-04-05 19:17:00,
2013-04-05 15:19:00,45.2,26.2,29.79,West,281,7.0,12.0,47,0.00,,,0.00,VWS V14.01,2013-04-05 19:19:00,
2013-04-05 15:20:00,45.1,26.1,29.79,WSW,241,5.0,5.0,47,0.00,,,0.00,VWS V14.01,2013-04-05 19:20:00,
2013-04-05 15:22:00,45.0,26.5,29.79,ENE,57,3.0,8.0,48,0.00,,,0.00,VWS V14.01,2013-04-05 19:22:00,
2013-04-05 15:24:00,45.0,26.0,29.79,SSW,212,0.0,8.0,47,0.00,,,0.00,VWS V14.01,2013-04-05 19:24:00,
2013-04-05 15:25:00,45.0,26.5,29.79,SSW,212,0.0,0.0,48,0.00,,,0.00,VWS V14.01,2013-04-05 19:25:00,
2013-04-05 15:28:00,45.1,25.6,29.79,SW,234,2.0,6.0,46,0.00,,,0.00,VWS V14.01,2013-04-05 19:28:00,
2013-04-05 15:30:00,45.2,26.2,29.79,South,180,0.0,2.0,47,0.00,,,0.00,VWS V14.01,2013-04-05 19:30:00,
2013-04-05 15:33:00,45.3,25.8,29.79,WSW,249,5.0,6.0,46,0.00,,,0.00,VWS V14.01,2013-04-05 19:33:00,
2013-04-05 15:35:00,45.3,25.8,29.79,WNW,286,1.0,7.0,46,0.00,,,0.00,VWS V14.01,2013-04-05 19:35:00,
2013-04-05 15:36:00,45.2,25.7,29.79,SW,234,5.0,7.0,46,0.00,,,0.00,VWS V14.01,2013-04-05 19:36:00,
2013-04-05 15:38:00,45.2,25.7,29.79,SSW,209,11.0,12.0,46,0.00,,,0.00,VWS V14.01,2013-04-05 19:38:00,
2013-04-05 15:40:00,45.1,25.6,29.79,SW,225,5.0,10.0,46,0.00,,,0.00,VWS V14.01,2013-04-05 19:40:00,
2013-04-05 15:41:00,45.1,25.6,29.79,SW,221,5.0,10.0,46,0.00,,,0.00,VWS V14.01,2013-04-05 19:41:00,
2013-04-05 15:43:00,45.1,26.1,29.79,South,188,0.0,10.0,47,0.00,,,0.00,VWS V14.01,2013-04-05 19:43:00,
2013-04-05 15:45:00,45.1,26.6,29.79,ESE,122,6.0,7.0,48,0.00,,,0.00,VWS V14.01,2013-04-05 19:45:00,
2013-04-05 15:46:00,45.1,26.6,29.79,SE,132,5.0,7.0,48,0.00,,,0.00,VWS V14.01,2013-04-05 19:46:00,
2013-04-05 15:47:00,45.1,26.1,29.79,SSW,203,2.0,7.0,47,0.00,,,0.00,VWS V14.01,2013-04-05 19:47:00,
2013-04-05 15:48:00,45.1,26.1,29.79,SW,235,6.0,12.0,47,0.00,,,0.00,VWS V14.01,2013-04-05 19:48:00,
2013-04-05 15:50:00,45.0,26.0,29.79,ESE,120,6.0,7.0,47,0.00,,,0.00,VWS V14.01,2013-04-05 19:50:00,
2013-04-05 15:51:00,45.0,26.0,29.79,SE,129,10.0,10.0,47,0.00,,,0.00,VWS V14.01,2013-04-05 19:51:00,
2013-04-05 15:52:00,45.0,26.0,29.79,West,279,7.0,15.0,47,0.00,,,0.00,VWS V14.01,2013-04-05 19:52:00,
2013-04-05 15:53:00,45.0,26.0,29.79,WSW,245,11.0,15.0,47,0.00,,,0.00,VWS V14.01,2013-04-05 19:53:00,
2013-04-05 15:55:00,44.9,26.4,29.79,WNW,291,9.0,10.0,48,0.00,,,0.00,VWS V14.01,2013-04-05 19:55:00,
2013-04-05 15:56:00,44.9,26.4,29.79,SSW,213,5.0,10.0,48,0.00,,,0.00,VWS V14.01,2013-04-05 19:56:00,
2013-04-05 15:57:00,44.8,26.3,29.79,WSW,252,3.0,10.0,48,0.00,,,0.00,VWS V14.01,2013-04-05 19:57:00,
2013-04-05 15:59:00,44.7,26.2,29.79,SW,233,5.0,10.0,48,0.00,,,0.00,VWS V14.01,2013-04-05 19:59:00,
2013-04-05 16:00:00,44.7,26.2,29.79,WSW,240,0.0,10.0,48,0.00,,,0.00,VWS V14.01,2013-04-05 20:00:00,
2013-04-05 16:01:00,44.7,26.2,29.79,West,260,11.0,13.0,48,0.00,,,0.00,VWS V14.01,2013-04-05 20:01:00,
2013-04-05 16:02:00,44.6,26.1,29.79,South,172,3.0,13.0,48,0.00,,,0.00,VWS V14.01,2013-04-05 20:02:00,
2013-04-05 16:04:00,44.6,26.1,29.79,SSW,207,4.0,13.0,48,0.00,,,0.00,VWS V14.01,2013-04-05 20:04:00,
2013-04-05 16:05:00,44.6,26.1,29.79,SSE,157,3.0,13.0,48,0.00,,,0.00,VWS V14.01,2013-04-05 20:05:00,
2013-04-05 16:06:00,44.5,26.5,29.79,WSW,246,13.0,13.0,49,0.00,,,0.00,VWS V14.01,2013-04-05 20:06:00,
2013-04-05 16:07:00,44.5,27.0,29.79,SSE,152,4.0,13.0,50,0.00,,,0.00,VWS V14.01,2013-04-05 20:07:00,
2013-04-05 16:10:00,44.5,27.5,29.80,SW,216,0.0,1.0,51,0.00,,,0.00,VWS V14.01,2013-04-05 20:10:00,
2013-04-05 16:11:00,44.5,27.0,29.80,ESE,122,3.0,6.0,50,0.00,,,0.00,VWS V14.01,2013-04-05 20:11:00,
2013-04-05 16:12:00,44.5,27.0,29.80,East,99,0.0,6.0,50,0.00,,,0.00,VWS V14.01,2013-04-05 20:12:00,
2013-04-05 16:15:00,44.5,27.5,29.80,SSE,154,1.0,4.0,51,0.00,,,0.00,VWS V14.01,2013-04-05 20:15:00,
2013-04-05 16:16:00,44.4,27.4,29.80,ENE,78,4.0,6.0,51,0.00,,,0.00,VWS V14.01,2013-04-05 20:16:00,
2013-04-05 16:17:00,44.4,27.4,29.80,East,85,3.0,6.0,51,0.00,,,0.00,VWS V14.01,2013-04-05 20:17:00,
2013-04-05 16:20:00,44.1,27.6,29.80,ENE,61,3.0,6.0,52,0.00,,,0.00,VWS V14.01,2013-04-05 20:20:00,
2013-04-05 16:22:00,44.0,27.5,29.80,SSW,202,1.0,6.0,52,0.00,,,0.00,VWS V14.01,2013-04-05 20:22:00,
2013-04-05 16:25:00,43.8,27.8,29.80,North,11,6.0,13.0,53,0.00,,,0.00,VWS V14.01,2013-04-05 20:25:00,
2013-04-05 16:26:00,43.7,28.2,29.81,SW,221,6.0,16.0,54,0.00,,,0.00,VWS V14.01,2013-04-05 20:26:00,
2013-04-05 16:27:00,43.5,28.4,29.81,WNW,294,11.0,18.0,55,0.00,,,0.00,VWS V14.01,2013-04-05 20:27:00,
2013-04-05 16:29:00,43.2,28.1,29.80,SW,227,3.0,18.0,55,0.00,,,0.00,VWS V14.01,2013-04-05 20:29:00,
2013-04-05 16:30:00,43.1,28.0,29.80,SE,136,9.0,18.0,55,0.00,,,0.00,VWS V14.01,2013-04-05 20:30:00,
2013-04-05 16:31:00,42.9,28.7,29.81,WNW,286,7.0,10.0,57,0.00,,,0.00,VWS V14.01,2013-04-05 20:31:00,
2013-04-05 16:32:00,42.8,28.6,29.81,SW,228,5.0,12.0,57,0.00,,,0.00,VWS V14.01,2013-04-05 20:32:00,
2013-04-05 16:33:00,42.8,28.6,29.80,WSW,240,8.0,21.0,57,0.00,,,0.00,VWS V14.01,2013-04-05 20:33:00,
2013-04-05 16:34:00,42.7,28.5,29.81,WSW,257,5.0,21.0,57,0.00,,,0.00,VWS V14.01,2013-04-05 20:34:00,
2013-04-05 16:35:00,42.6,28.5,29.81,West,278,10.0,21.0,57,0.00,,,0.00,VWS V14.01,2013-04-05 20:35:00,
2013-04-05 16:37:00,42.4,28.7,29.81,West,271,12.0,14.0,58,0.00,,,0.00,VWS V14.01,2013-04-05 20:37:00,
2013-04-05 16:38:00,42.3,28.6,29.81,SW,215,13.0,19.0,58,0.00,,,0.00,VWS V14.01,2013-04-05 20:38:00,
2013-04-05 16:39:00,42.2,28.5,29.81,WSW,248,4.0,19.0,58,0.00,,,0.00,VWS V14.01,2013-04-05 20:39:00,
2013-04-05 16:40:00,42.2,28.5,29.81,WSW,238,9.0,19.0,58,0.00,,,0.00,VWS V14.01,2013-04-05 20:40:00,
2013-04-05 16:42:00,42.0,28.3,29.81,South,178,5.0,14.0,58,0.00,,,0.00,VWS V14.01,2013-04-05 20:42:00,
2013-04-05 16:43:00,42.0,28.7,29.82,SSE,161,5.0,14.0,59,0.00,,,0.00,VWS V14.01,2013-04-05 20:43:00,
2013-04-05 16:44:00,41.9,28.6,29.81,West,276,6.0,14.0,59,0.00,,,0.00,VWS V14.01,2013-04-05 20:44:00,
2013-04-05 16:45:00,41.9,28.6,29.81,West,276,6.0,14.0,59,0.00,,,0.00,VWS V14.01,2013-04-05 20:45:00,
2013-04-05 16:47:00,41.9,28.6,29.82,WSW,239,7.0,15.0,59,0.00,,,0.00,VWS V14.01,2013-04-05 20:47:00,
2013-04-05 16:48:00,41.8,28.5,29.82,ESE,107,3.0,15.0,59,0.00,,,0.00,VWS V14.01,2013-04-05 20:48:00,
2013-04-05 16:49:00,41.7,28.4,29.82,SSW,197,2.0,15.0,59,0.00,,,0.00,VWS V14.01,2013-04-05 20:49:00,
2013-04-05 16:50:00,41.7,28.4,29.82,SSW,197,2.0,15.0,59,0.00,,,0.00,VWS V14.01,2013-04-05 20:50:00,
2013-04-05 16:52:00,41.6,28.8,29.82,SW,230,3.0,10.0,60,0.00,,,0.00,VWS V14.01,2013-04-05 20:52:00,
2013-04-05 16:53:00,41.6,28.8,29.82,West,279,2.0,12.0,60,0.00,,,0.00,VWS V14.01,2013-04-05 20:53:00,
2013-04-05 16:55:00,41.5,28.7,29.82,ESE,109,6.0,12.0,60,0.00,,,0.00,VWS V14.01,2013-04-05 20:55:00,
2013-04-05 16:56:00,41.5,28.7,29.82,South,191,7.0,11.0,60,0.00,,,0.00,VWS V14.01,2013-04-05 20:56:00,
2013-04-05 16:57:00,41.4,29.0,29.82,SE,137,5.0,13.0,61,0.00,,,0.00,VWS V14.01,2013-04-05 20:57:00,
2013-04-05 16:58:00,41.4,29.0,29.82,NW,321,15.0,15.0,61,0.00,,,0.00,VWS V14.01,2013-04-05 20:58:00,
2013-04-05 16:59:00,41.3,28.9,29.82,WSW,245,5.0,15.0,61,0.00,,,0.00,VWS V14.01,2013-04-05 20:59:00,
2013-04-05 17:00:00,41.3,28.9,29.82,West,260,3.0,15.0,61,0.00,,,0.00,VWS V14.01,2013-04-05 21:00:00,
2013-04-05 17:01:00,41.2,28.4,29.82,SSW,213,6.0,12.0,60,0.00,,,0.00,VWS V14.01,2013-04-05 21:01:00,
2013-04-05 17:03:00,41.1,28.3,29.82,WSW,244,7.0,19.0,60,0.00,,,0.00,VWS V14.01,2013-04-05 21:03:00,
2013-04-05 17:05:00,41.1,28.3,29.82,West,281,1.0,2.0,60,0.00,,,0.00,VWS V14.01,2013-04-05 21:05:00,
2013-04-05 17:07:00,41.0,28.2,29.83,WSW,246,1.0,9.0,60,0.00,,,0.00,VWS V14.01,2013-04-05 21:07:00,
2013-04-05 17:08:00,41.0,28.2,29.82,West,279,4.0,9.0,60,0.00,,,0.00,VWS V14.01,2013-04-05 21:08:00,
2013-04-05 17:10:00,41.1,28.7,29.83,East,95,2.0,4.0,61,0.00,,,0.00,VWS V14.01,2013-04-05 21:10:00,
2013-04-05 17:12:00,41.1,28.7,29.83,SE,144,3.0,13.0,61,0.00,,,0.00,VWS V14.01,2013-04-05 21:12:00,
2013-04-05 17:13:00,41.1,28.7,29.83,South,191,3.0,13.0,61,0.00,,,0.00,VWS V14.01,2013-04-05 21:13:00,
2013-04-05 17:15:00,41.1,28.7,29.83,SW,227,12.0,14.0,61,0.00,,,0.00,VWS V14.01,2013-04-05 21:15:00,
2013-04-05 17:17:00,41.0,28.6,29.83,WSW,245,3.0,14.0,61,0.00,,,0.00,VWS V14.01,2013-04-05 21:17:00,
2013-04-05 17:18:00,41.0,29.0,29.83,West,265,3.0,14.0,62,0.00,,,0.00,VWS V14.01,2013-04-05 21:18:00,
2013-04-05 17:19:00,41.0,29.0,29.83,NW,317,0.0,14.0,62,0.00,,,0.00,VWS V14.01,2013-04-05 21:19:00,
2013-04-05 17:20:00,40.9,28.5,29.83,NW,310,5.0,5.0,61,0.00,,,0.00,VWS V14.01,2013-04-05 21:20:00,
2013-04-05 17:22:00,40.8,28.4,29.83,South,191,6.0,11.0,61,0.00,,,0.00,VWS V14.01,2013-04-05 21:22:00,
2013-04-05 17:24:00,40.7,28.3,29.83,SW,227,1.0,11.0,61,0.00,,,0.00,VWS V14.01,2013-04-05 21:24:00,
2013-04-05 17:25:00,40.7,28.7,29.83,NW,309,3.0,6.0,62,0.00,,,0.00,VWS V14.01,2013-04-05 21:25:00,
2013-04-05 17:27:00,40.6,28.2,29.83,SSW,195,2.0,21.0,61,0.00,,,0.00,VWS V14.01,2013-04-05 21:27:00,
2013-04-05 17:29:00,40.5,28.1,29.83,WNW,298,9.0,21.0,61,0.00,,,0.00,VWS V14.01,2013-04-05 21:29:00,
2013-04-05 17:30:00,40.5,28.1,29.83,West,279,4.0,9.0,61,0.00,,,0.00,VWS V14.01,2013-04-05 21:30:00,
2013-04-05 17:32:00,40.4,28.0,29.83,West,268,4.0,20.0,61,0.00,,,0.00,VWS V14.01,2013-04-05 21:32:00,
2013-04-05 17:34:00,40.4,28.4,29.83,WSW,249,5.0,20.0,62,0.00,,,0.00,VWS V14.01,2013-04-05 21:34:00,
2013-04-05 17:35:00,40.3,27.9,29.83,WSW,237,6.0,7.0,61,0.00,,,0.00,VWS V14.01,2013-04-05 21:35:00,
2013-04-05 17:38:00,40.2,28.2,29.83,SSW,194,6.0,11.0,62,0.00,,,0.00,VWS V14.01,2013-04-05 21:38:00,
2013-04-05 17:40:00,40.2,28.2,29.84,SE,133,1.0,3.0,62,0.00,,,0.00,VWS V14.01,2013-04-05 21:40:00,
2013-04-05 17:44:00,40.0,27.6,29.84,ESE,103,3.0,14.0,61,0.00,,,0.00,VWS V14.01,2013-04-05 21:44:00,
2013-04-05 17:45:00,40.0,28.0,29.84,South,180,3.0,10.0,62,0.00,,,0.00,VWS V14.01,2013-04-05 21:45:00,
2013-04-05 17:46:00,40.0,28.0,29.84,South,190,3.0,10.0,62,0.00,,,0.00,VWS V14.01,2013-04-05 21:46:00,
2013-04-05 17:49:00,40.0,28.0,29.84,SSW,196,3.0,3.0,62,0.00,,,0.00,VWS V14.01,2013-04-05 21:49:00,
2013-04-05 17:50:00,40.0,28.0,29.84,SSW,194,5.0,5.0,62,0.00,,,0.00,VWS V14.01,2013-04-05 21:50:00,
2013-04-05 17:52:00,40.0,27.6,29.84,SW,219,5.0,9.0,61,0.00,,,0.00,VWS V14.01,2013-04-05 21:52:00,
2013-04-05 17:54:00,40.0,28.0,29.84,WSW,257,2.0,2.0,62,0.00,,,0.00,VWS V14.01,2013-04-05 21:54:00,
2013-04-05 17:55:00,40.0,28.0,29.84,WSW,257,2.0,9.0,62,0.00,,,0.00,VWS V14.01,2013-04-05 21:55:00,
2013-04-05 17:56:00,40.0,27.6,29.84,WSW,248,1.0,6.0,61,0.00,,,0.00,VWS V14.01,2013-04-05 21:56:00,
2013-04-05 17:57:00,40.0,27.6,29.85,WSW,244,5.0,6.0,61,0.00,,,0.00,VWS V14.01,2013-04-05 21:57:00,
2013-04-05 18:00:00,40.0,27.6,29.85,SSE,149,4.0,10.0,61,0.00,,,0.00,VWS V14.01,2013-04-05 22:00:00,
2013-04-05 18:01:00,40.0,27.6,29.85,WSW,257,4.0,10.0,61,0.00,,,0.00,VWS V14.01,2013-04-05 22:01:00,
2013-04-05 18:02:00,40.0,27.6,29.85,South,182,9.0,10.0,61,0.00,,,0.00,VWS V14.01,2013-04-05 22:02:00,
2013-04-05 18:05:00,40.0,27.6,29.85,South,184,3.0,7.0,61,0.00,,,0.00,VWS V14.01,2013-04-05 22:05:00,
2013-04-05 18:06:00,40.0,27.6,29.85,WSW,251,6.0,7.0,61,0.00,,,0.00,VWS V14.01,2013-04-05 22:06:00,
2013-04-05 18:07:00,40.0,27.6,29.85,WNW,288,2.0,7.0,61,0.00,,,0.00,VWS V14.01,2013-04-05 22:07:00,
2013-04-05 18:10:00,39.9,27.6,29.85,North,355,2.0,10.0,61,0.00,,,0.00,VWS V14.01,2013-04-05 22:10:00,
2013-04-05 18:11:00,39.9,27.2,29.85,SSW,213,1.0,10.0,60,0.00,,,0.00,VWS V14.01,2013-04-05 22:11:00,
2013-04-05 18:12:00,39.9,27.2,29.85,WSW,238,5.0,10.0,60,0.00,,,0.00,VWS V14.01,2013-04-05 22:12:00,
2013-04-05 18:15:00,39.8,27.1,29.86,SW,234,10.0,12.0,60,0.00,,,0.00,VWS V14.01,2013-04-05 22:15:00,
2013-04-05 18:16:00,39.8,27.1,29.86,WSW,245,5.0,13.0,60,0.00,,,0.00,VWS V14.01,2013-04-05 22:16:00,
2013-04-05 18:17:00,39.8,27.1,29.86,NNE,29,2.0,13.0,60,0.00,,,0.00,VWS V14.01,2013-04-05 22:17:00,
2013-04-05 18:20:00,39.6,26.5,29.86,WSW,237,7.0,15.0,59,0.00,,,0.00,VWS V14.01,2013-04-05 22:20:00,
2013-04-05 18:22:00,39.5,26.8,29.86,SE,142,2.0,14.0,60,0.00,,,0.00,VWS V14.01,2013-04-05 22:22:00,
2013-04-05 18:23:00,39.5,26.8,29.86,West,265,0.0,14.0,60,0.00,,,0.00,VWS V14.01,2013-04-05 22:23:00,
2013-04-05 18:25:00,39.5,26.8,29.86,WSW,237,6.0,14.0,60,0.00,,,0.00,VWS V14.01,2013-04-05 22:25:00,
2013-04-05 18:27:00,39.5,26.8,29.86,SW,223,2.0,11.0,60,0.00,,,0.00,VWS V14.01,2013-04-05 22:27:00,
2013-04-05 18:28:00,39.5,26.8,29.86,SW,223,3.0,11.0,60,0.00,,,0.00,VWS V14.01,2013-04-05 22:28:00,
2013-04-05 18:30:00,39.4,26.3,29.86,SW,235,2.0,11.0,59,0.00,,,0.00,VWS V14.01,2013-04-05 22:30:00,
2013-04-05 18:32:00,39.3,26.2,29.86,SSE,148,2.0,14.0,59,0.00,,,0.00,VWS V14.01,2013-04-05 22:32:00,
2013-04-05 18:33:00,39.3,26.2,29.86,South,182,3.0,14.0,59,0.00,,,0.00,VWS V14.01,2013-04-05 22:33:00,
2013-04-05 18:35:00,39.3,26.2,29.86,SW,217,6.0,14.0,59,0.00,,,0.00,VWS V14.01,2013-04-05 22:35:00,
2013-04-05 18:37:00,39.2,26.1,29.86,WNW,300,5.0,9.0,59,0.00,,,0.00,VWS V14.01,2013-04-05 22:37:00,
2013-04-05 18:38:00,39.1,26.0,29.86,WSW,257,4.0,10.0,59,0.00,,,0.00,VWS V14.01,2013-04-05 22:38:00,
2013-04-05 18:40:00,39.0,25.5,29.86,WSW,246,1.0,12.0,58,0.00,,,0.00,VWS V14.01,2013-04-05 22:40:00,
2013-04-05 18:42:00,38.9,25.8,29.87,SSW,198,7.0,12.0,59,0.00,,,0.00,VWS V14.01,2013-04-05 22:42:00,
2013-04-05 18:43:00,38.9,25.4,29.87,SW,221,3.0,12.0,58,0.00,,,0.00,VWS V14.01,2013-04-05 22:43:00,
2013-04-05 18:44:00,38.9,25.4,29.87,SSW,202,2.0,12.0,58,0.00,,,0.00,VWS V14.01,2013-04-05 22:44:00,
2013-04-05 18:45:00,38.9,25.8,29.87,SW,216,5.0,12.0,59,0.00,,,0.00,VWS V14.01,2013-04-05 22:45:00,
2013-04-05 18:47:00,38.9,25.8,29.87,SW,225,2.0,9.0,59,0.00,,,0.00,VWS V14.01,2013-04-05 22:47:00,
2013-04-05 18:48:00,38.9,25.8,29.87,ENE,67,1.0,9.0,59,0.00,,,0.00,VWS V14.01,2013-04-05 22:48:00,
2013-04-05 18:49:00,38.9,25.4,29.87,SSW,209,6.0,11.0,58,0.00,,,0.00,VWS V14.01,2013-04-05 22:49:00,
2013-04-05 18:50:00,38.8,25.3,29.87,WSW,242,7.0,11.0,58,0.00,,,0.00,VWS V14.01,2013-04-05 22:50:00,
2013-04-05 18:52:00,38.7,25.2,29.87,SW,217,0.0,10.0,58,0.00,,,0.00,VWS V14.01,2013-04-05 22:52:00,
2013-04-05 18:53:00,38.7,25.2,29.87,SW,217,1.0,10.0,58,0.00,,,0.00,VWS V14.01,2013-04-05 22:53:00,
2013-04-05 18:54:00,38.7,25.2,29.87,NE,34,0.0,10.0,58,0.00,,,0.00,VWS V14.01,2013-04-05 22:54:00,
2013-04-05 18:55:00,38.7,25.2,29.87,West,276,10.0,11.0,58,0.00,,,0.00,VWS V14.01,2013-04-05 22:55:00,
2013-04-05 18:57:00,38.6,25.1,29.88,WSW,246,3.0,11.0,58,0.00,,,0.00,VWS V14.01,2013-04-05 22:57:00,
2013-04-05 18:58:00,38.6,25.1,29.88,SE,132,6.0,11.0,58,0.00,,,0.00,VWS V14.01,2013-04-05 22:58:00,
2013-04-05 18:59:00,38.6,25.1,29.87,West,269,4.0,11.0,58,0.00,,,0.00,VWS V14.01,2013-04-05 22:59:00,
2013-04-05 19:00:00,38.6,25.1,29.88,SW,231,3.0,11.0,58,0.00,,,0.00,VWS V14.01,2013-04-05 23:00:00,
2013-04-05 19:01:00,38.5,25.0,29.88,West,267,2.0,6.0,58,0.00,,,0.00,VWS V14.01,2013-04-05 23:01:00,
2013-04-05 19:03:00,38.4,24.9,29.88,SSW,196,0.0,11.0,58,0.00,,,0.00,VWS V14.01,2013-04-05 23:03:00,
2013-04-05 19:04:00,38.4,24.9,29.88,SSW,195,0.0,11.0,58,0.00,,,0.00,VWS V14.01,2013-04-05 23:04:00,
2013-04-05 19:05:00,38.4,24.9,29.88,SSW,196,0.0,11.0,58,0.00,,,0.00,VWS V14.01,2013-04-05 23:05:00,
2013-04-05 19:06:00,38.4,24.9,29.88,WNW,284,1.0,5.0,58,0.00,,,0.00,VWS V14.01,2013-04-05 23:06:00,
2013-04-05 19:08:00,38.4,24.9,29.88,SW,232,5.0,9.0,58,0.00,,,0.00,VWS V14.01,2013-04-05 23:08:00,
2013-04-05 19:09:00,38.3,25.2,29.88,East,96,2.0,3.0,59,0.00,,,0.00,VWS V14.01,2013-04-05 23:09:00,
2013-04-05 19:10:00,38.3,25.2,29.88,East,95,3.0,9.0,59,0.00,,,0.00,VWS V14.01,2013-04-05 23:10:00,
2013-04-05 19:12:00,38.2,24.7,29.88,SSW,193,0.0,9.0,58,0.00,,,0.00,VWS V14.01,2013-04-05 23:12:00,
2013-04-05 19:13:00,38.2,25.1,29.88,SSW,196,1.0,9.0,59,0.00,,,0.00,VWS V14.01,2013-04-05 23:13:00,
2013-04-05 19:14:00,38.1,25.1,29.88,ESE,103,2.0,3.0,59,0.00,,,0.00,VWS V14.01,2013-04-05 23:14:00,
2013-04-05 19:15:00,38.1,25.1,29.88,East,99,3.0,9.0,59,0.00,,,0.00,VWS V14.01,2013-04-05 23:15:00,
2013-04-05 19:17:00,38.0,25.0,29.89,SSW,195,0.0,3.0,59,0.00,,,0.00,VWS V14.01,2013-04-05 23:17:00,
2013-04-05 19:18:00,38.0,25.0,29.89,WSW,252,9.0,10.0,59,0.00,,,0.00,VWS V14.01,2013-04-05 23:18:00,
2013-04-05 19:19:00,38.0,24.5,29.89,SW,226,1.0,10.0,58,0.00,,,0.00,VWS V14.01,2013-04-05 23:19:00,
2013-04-05 19:20:00,38.0,24.5,29.89,SW,218,1.0,10.0,58,0.00,,,0.00,VWS V14.01,2013-04-05 23:20:00,
2013-04-05 19:23:00,37.8,24.4,29.89,South,175,1.0,12.0,58,0.00,,,0.00,VWS V14.01,2013-04-05 23:23:00,
2013-04-05 19:24:00,37.8,24.4,29.89,SW,221,1.0,12.0,58,0.00,,,0.00,VWS V14.01,2013-04-05 23:24:00,
2013-04-05 19:25:00,37.8,24.4,29.89,SW,221,0.0,12.0,58,0.00,,,0.00,VWS V14.01,2013-04-05 23:25:00,
2013-04-05 19:29:00,37.7,24.7,29.89,South,177,2.0,11.0,59,0.00,,,0.00,VWS V14.01,2013-04-05 23:29:00,
2013-04-05 19:30:00,37.7,24.7,29.89,NNE,33,2.0,2.0,59,0.00,,,0.00,VWS V14.01,2013-04-05 23:30:00,
2013-04-05 19:34:00,37.5,24.5,29.89,SSW,198,1.0,13.0,59,0.00,,,0.00,VWS V14.01,2013-04-05 23:34:00,
2013-04-05 19:35:00,37.5,24.5,29.89,SW,232,4.0,7.0,59,0.00,,,0.00,VWS V14.01,2013-04-05 23:35:00,
2013-04-05 19:39:00,37.4,24.4,29.90,SE,146,3.0,7.0,59,0.00,,,0.00,VWS V14.01,2013-04-05 23:39:00,
2013-04-05 19:40:00,37.3,24.3,29.90,SW,223,5.0,9.0,59,0.00,,,0.00,VWS V14.01,2013-04-05 23:40:00,
2013-04-05 19:44:00,37.2,24.6,29.90,SSW,194,0.0,10.0,60,0.00,,,0.00,VWS V14.01,2013-04-05 23:44:00,
2013-04-05 19:45:00,37.2,24.6,29.90,SW,229,3.0,4.0,60,0.00,,,0.00,VWS V14.01,2013-04-05 23:45:00,
2013-04-05 19:49:00,37.1,24.5,29.91,SE,127,2.0,5.0,60,0.00,,,0.00,VWS V14.01,2013-04-05 23:49:00,
2013-04-05 19:50:00,37.1,24.9,29.91,NW,311,0.0,2.0,61,0.00,,,0.00,VWS V14.01,2013-04-05 23:50:00,
2013-04-05 19:54:00,36.9,24.7,29.91,South,177,6.0,7.0,61,0.00,,,0.00,VWS V14.01,2013-04-05 23:54:00,
2013-04-05 19:55:00,36.9,24.7,29.91,SW,234,4.0,8.0,61,0.00,,,0.00,VWS V14.01,2013-04-05 23:55:00,
2013-04-05 19:59:00,36.7,24.5,29.91,SSW,206,2.0,8.0,61,0.00,,,0.00,VWS V14.01,2013-04-05 23:59:00,
2013-04-05 20:00:00,36.7,24.5,29.91,South,178,1.0,2.0,61,0.00,,,0.00,VWS V14.01,2013-04-06 00:00:00,
2013-04-05 20:04:00,36.4,24.2,29.92,WSW,248,2.0,9.0,61,0.00,,,0.00,VWS V14.01,2013-04-06 00:04:00,
2013-04-05 20:05:00,36.4,24.2,29.92,South,189,11.0,11.0,61,0.00,,,0.00,VWS V14.01,2013-04-06 00:05:00,
2013-04-05 20:09:00,36.1,24.0,29.92,ESE,115,2.0,16.0,61,0.00,,,0.00,VWS V14.01,2013-04-06 00:09:00,
2013-04-05 20:10:00,36.1,24.0,29.92,WSW,241,3.0,4.0,61,0.00,,,0.00,VWS V14.01,2013-04-06 00:10:00,
2013-04-05 20:11:00,36.1,24.0,29.92,WSW,237,2.0,4.0,61,0.00,,,0.00,VWS V14.01,2013-04-06 00:11:00,
2013-04-05 20:14:00,35.9,23.8,29.92,East,93,0.0,6.0,61,0.00,,,0.00,VWS V14.01,2013-04-06 00:14:00,
2013-04-05 20:15:00,35.9,23.8,29.92,East,93,0.0,6.0,61,0.00,,,0.00,VWS V14.01,2013-04-06 00:15:00,
2013-04-05 20:16:00,35.7,23.6,29.92,WSW,254,4.0,4.0,61,0.00,,,0.00,VWS V14.01,2013-04-06 00:16:00,
2013-04-05 20:17:00,35.7,23.6,29.92,SSE,166,3.0,5.0,61,0.00,,,0.00,VWS V14.01,2013-04-06 00:17:00,
2013-04-05 20:19:00,35.5,23.4,29.92,SSE,152,2.0,2.0,61,0.00,,,0.00,VWS V14.01,2013-04-06 00:19:00,
2013-04-05 20:20:00,35.5,23.4,29.92,SSE,152,2.0,6.0,61,0.00,,,0.00,VWS V14.01,2013-04-06 00:20:00,
2013-04-05 20:21:00,35.5,23.4,29.93,SSE,155,1.0,2.0,61,0.00,,,0.00,VWS V14.01,2013-04-06 00:21:00,
2013-04-05 22:28:00,35.5,23.4,29.93,SSE,155,1.0,2.0,61,0.00,,,0.00,VWS V14.01,2013-04-06 02:28:00,
2013-04-05 22:29:00,32.5,19.4,29.97,South,180,6.0,6.0,58,0.00,,,0.00,VWS V14.01,2013-04-06 02:29:00,
2013-04-05 22:30:00,32.5,19.8,29.97,SW,229,6.0,6.0,59,0.00,,,0.00,VWS V14.01,2013-04-06 02:30:00,
2013-04-05 22:33:00,32.4,19.3,29.97,NNE,23,6.0,11.0,58,0.00,,,0.00,VWS V14.01,2013-04-06 02:33:00,
2013-04-05 22:34:00,32.4,19.3,29.97,WSW,253,2.0,11.0,58,0.00,,,0.00,VWS V14.01,2013-04-06 02:34:00,
2013-04-05 22:35:00,32.4,19.3,29.97,SW,221,2.0,12.0,58,0.00,,,0.00,VWS V14.01,2013-04-06 02:35:00,
2013-04-05 22:38:00,32.3,19.2,29.97,SSW,196,2.0,11.0,58,0.00,,,0.00,VWS V14.01,2013-04-06 02:38:00,
2013-04-05 22:39:00,32.2,19.1,29.97,South,183,3.0,11.0,58,0.00,,,0.00,VWS V14.01,2013-04-06 02:39:00,
2013-04-05 22:40:00,32.2,19.1,29.97,SSW,198,0.0,4.0,58,0.00,,,0.00,VWS V14.01,2013-04-06 02:40:00,
2013-04-05 22:43:00,32.1,19.0,29.97,West,279,6.0,10.0,58,0.00,,,0.00,VWS V14.01,2013-04-06 02:43:00,
2013-04-05 22:44:00,32.1,19.0,29.97,SW,234,1.0,10.0,58,0.00,,,0.00,VWS V14.01,2013-04-06 02:44:00,
2013-04-05 22:45:00,32.1,19.0,29.97,SW,232,1.0,2.0,58,0.00,,,0.00,VWS V14.01,2013-04-06 02:45:00,
2013-04-05 22:48:00,32.0,18.9,29.97,SW,229,2.0,5.0,58,0.00,,,0.00,VWS V14.01,2013-04-06 02:48:00,
2013-04-05 22:49:00,32.0,20.5,29.97,WSW,248,3.0,5.0,62,0.00,,,0.00,VWS V14.01,2013-04-06 02:49:00,
2013-04-05 22:50:00,32.0,20.5,29.97,WSW,248,2.0,5.0,62,0.00,,,0.00,VWS V14.01,2013-04-06 02:50:00,
2013-04-05 22:54:00,31.9,18.8,29.97,SW,236,7.0,11.0,58,0.00,,,0.00,VWS V14.01,2013-04-06 02:54:00,
2013-04-05 22:55:00,31.9,18.8,29.97,ESE,121,2.0,5.0,58,0.00,,,0.00,VWS V14.01,2013-04-06 02:55:00,
2013-04-05 22:59:00,31.9,18.8,29.97,West,259,0.0,5.0,58,0.00,,,0.00,VWS V14.01,2013-04-06 02:59:00,
2013-04-05 23:00:00,31.9,18.8,29.97,WSW,244,5.0,5.0,58,0.00,,,0.00,VWS V14.01,2013-04-06 03:00:00,
2013-04-05 23:01:00,31.9,18.8,29.97,WSW,250,2.0,6.0,58,0.00,,,0.00,VWS V14.01,2013-04-06 03:01:00,
2013-04-05 23:04:00,31.7,18.6,29.97,WNW,302,3.0,6.0,58,0.00,,,0.00,VWS V14.01,2013-04-06 03:04:00,
2013-04-05 23:05:00,31.7,18.6,29.97,West,270,6.0,6.0,58,0.00,,,0.00,VWS V14.01,2013-04-06 03:05:00,
2013-04-05 23:06:00,31.6,18.5,29.97,SW,222,3.0,6.0,58,0.00,,,0.00,VWS V14.01,2013-04-06 03:06:00,
2013-04-05 23:07:00,31.6,18.9,29.98,SW,219,1.0,6.0,59,0.00,,,0.00,VWS V14.01,2013-04-06 03:07:00,
2013-04-05 23:09:00,31.5,18.4,29.97,SW,231,4.0,6.0,58,0.00,,,0.00,VWS V14.01,2013-04-06 03:09:00,
2013-04-05 23:10:00,31.4,18.4,29.98,SSW,194,3.0,4.0,58,0.00,,,0.00,VWS V14.01,2013-04-06 03:10:00,
2013-04-05 23:11:00,31.4,18.4,29.98,South,171,1.0,4.0,58,0.00,,,0.00,VWS V14.01,2013-04-06 03:11:00,
2013-04-05 23:12:00,31.4,18.7,29.98,West,271,7.0,7.0,59,0.00,,,0.00,VWS V14.01,2013-04-06 03:12:00,
2013-04-05 23:14:00,31.3,18.6,29.98,West,264,4.0,7.0,59,0.00,,,0.00,VWS V14.01,2013-04-06 03:14:00,
2013-04-05 23:15:00,31.3,18.6,29.97,SSW,198,1.0,3.0,59,0.00,,,0.00,VWS V14.01,2013-04-06 03:15:00,
2013-04-05 23:16:00,31.2,18.5,29.97,SW,218,0.0,3.0,59,0.00,,,0.00,VWS V14.01,2013-04-06 03:16:00,
2013-04-05 23:17:00,31.2,18.5,29.97,SW,218,0.0,3.0,59,0.00,,,0.00,VWS V14.01,2013-04-06 03:17:00,
2013-04-05 23:20:00,31.3,18.6,29.97,SW,236,1.0,1.0,59,0.00,,,0.00,VWS V14.01,2013-04-06 03:20:00,
2013-04-05 23:21:00,31.2,18.5,29.97,SW,236,0.0,2.0,59,0.00,,,0.00,VWS V14.01,2013-04-06 03:21:00,
2013-04-05 23:22:00,31.3,18.6,29.97,SW,236,0.0,2.0,59,0.00,,,0.00,VWS V14.01,2013-04-06 03:22:00,
2013-04-05 23:23:00,31.3,18.6,29.97,SW,236,0.0,2.0,59,0.00,,,0.00,VWS V14.01,2013-04-06 03:23:00,
2013-04-05 23:25:00,31.2,19.0,29.98,SSE,166,1.0,2.0,60,0.00,,,0.00,VWS V14.01,2013-04-06 03:25:00,
2013-04-05 23:26:00,31.3,18.6,29.98,WSW,240,1.0,6.0,59,0.00,,,0.00,VWS V14.01,2013-04-06 03:26:00,
2013-04-05 23:28:00,31.2,18.5,29.98,WSW,237,0.0,6.0,59,0.00,,,0.00,VWS V14.01,2013-04-06 03:28:00,
2013-04-05 23:30:00,31.2,18.5,29.98,South,178,0.0,1.0,59,0.00,,,0.00,VWS V14.01,2013-04-06 03:30:00,
2013-04-05 23:31:00,31.2,18.5,29.98,WSW,257,4.0,5.0,59,0.00,,,0.00,VWS V14.01,2013-04-06 03:31:00,
2013-04-05 23:33:00,31.2,19.0,29.99,South,184,0.0,10.0,60,0.00,,,0.00,VWS V14.01,2013-04-06 03:33:00,
2013-04-05 23:35:00,31.3,18.6,29.99,SW,233,2.0,2.0,59,0.00,,,0.00,VWS V14.01,2013-04-06 03:35:00,
2013-04-05 23:36:00,31.3,18.2,29.99,South,188,2.0,6.0,58,0.00,,,0.00,VWS V14.01,2013-04-06 03:36:00,
2013-04-05 23:39:00,31.3,18.2,29.99,SSW,210,5.0,10.0,58,0.00,,,0.00,VWS V14.01,2013-04-06 03:39:00,
2013-04-05 23:40:00,31.4,17.9,29.99,ENE,60,1.0,2.0,57,0.00,,,0.00,VWS V14.01,2013-04-06 03:40:00,
2013-04-05 23:41:00,31.4,18.4,29.99,South,186,3.0,5.0,58,0.00,,,0.00,VWS V14.01,2013-04-06 03:41:00,
2013-04-05 23:44:00,31.4,17.9,30.00,ESE,102,4.0,9.0,57,0.00,,,0.00,VWS V14.01,2013-04-06 03:44:00,
2013-04-05 23:45:00,31.4,17.9,30.00,WSW,241,1.0,9.0,57,0.00,,,0.00,VWS V14.01,2013-04-06 03:45:00,
2013-04-05 23:46:00,31.4,17.9,30.00,SW,228,3.0,12.0,57,0.00,,,0.00,VWS V14.01,2013-04-06 03:46:00,
2013-04-05 23:47:00,31.5,17.6,30.00,SW,229,3.0,12.0,56,0.00,,,0.00,VWS V14.01,2013-04-06 03:47:00,
2013-04-05 23:49:00,31.5,17.6,30.00,SW,234,4.0,4.0,56,0.00,,,0.00,VWS V14.01,2013-04-06 03:49:00,
2013-04-05 23:50:00,31.5,17.6,30.00,SW,232,3.0,5.0,56,0.00,,,0.00,VWS V14.01,2013-04-06 03:50:00,
2013-04-05 23:51:00,31.5,17.6,30.00,SW,233,2.0,7.0,56,0.00,,,0.00,VWS V14.01,2013-04-06 03:51:00,
2013-04-05 23:52:00,31.5,17.6,29.99,SW,233,0.0,7.0,56,0.00,,,0.00,VWS V14.01,2013-04-06 03:52:00,
2013-04-05 23:55:00,31.5,18.0,30.00,SW,234,0.0,1.0,57,0.00,,,0.00,VWS V14.01,2013-04-06 03:55:00,
2013-04-05 23:57:00,31.4,17.5,30.00,SW,230,2.0,8.0,56,0.00,,,0.00,VWS V14.01,2013-04-06 03:57:00,